GFSCGP_prec_precacc12_090.txt.gz
Total_Precipitation_Accumulation
0.00 0.00 0.00 0.00 0.00 0.00 0.00 0.02 0.03 0.02 0.07 0.52 0.47 0.31 0.37 0.26 0.03 0.02 0.00 0.00 0.00 0.00 0.00 0.00 0.00 0.00 0.00 0.00 0.00 0.00 0.00 0.00 0.00 0.00 0.00 0.01 0.09 0.04 0.09 0.09 0.18 0.21 0.18 0.11
0.00 0.00 0.00 0.00 0.00 0.00 0.00 0.00 0.01 0.06 0.24 0.35 0.58 0.33 0.11 0.06 0.12 0.10 0.01 0.00 0.00 0.00 0.00 0.00 0.00 0.00 0.00 0.00 0.00 0.00 0.00 0.00 0.00 0.00 0.01 0.01 0.04 0.03 0.07 0.14 0.20 0.10 0.07 0.07
0.00 0.00 0.00 0.00 0.00 0.00 0.00 0.00 0.00 0.03 0.14 0.26 0.40 0.28 0.11 0.08 0.17 0.27 0.04 0.01 0.01 0.01 0.01 0.00 0.00 0.00 0.00 0.00 0.00 0.00 0.00 0.00 0.00 0.00 0.01 0.03 0.04 0.08 0.12 0.07 0.07 0.05 0.01 0.03
0.00 0.00 0.00 0.00 0.00 0.00 0.00 0.00 0.00 0.00 0.01 0.05 0.13 0.15 0.13 0.10 0.13 0.16 0.12 0.01 0.02 0.03 0.03 0.03 0.00 0.00 0.00 0.00 0.00 0.00 0.00 0.00 0.00 0.00 0.01 0.03 0.04 0.06 0.04 0.05 0.07 0.05 0.02 0.03
0.00 0.00 0.00 0.00 0.00 0.00 0.00 0.00 0.00 0.00 0.00 0.00 0.02 0.03 0.01 0.17 0.38 0.45 0.24 0.07 0.04 0.03 0.06 0.04 0.01 0.03 0.03 0.00 0.00 0.00 0.00 0.00 0.00 0.00 0.01 0.01 0.01 0.02 0.04 0.06 0.20 0.02 0.03 0.02
0.00 0.00 0.00 0.00 0.00 0.00 0.00 0.00 0.00 0.00 0.00 0.00 0.00 0.00 0.01 0.04 0.12 0.45 0.40 0.18 0.06 0.03 0.08 0.06 0.04 0.04 0.04 0.01 0.00 0.00 0.00 0.00 0.00 0.00 0.00 0.01 0.01 0.02 0.05 0.05 0.21 0.08 0.02 0.02
0.00 0.00 0.00 0.00 0.00 0.00 0.00 0.00 0.00 0.00 0.00 0.00 0.00 0.00 0.02 0.02 0.05 0.22 0.44 0.18 0.16 0.08 0.12 0.06 0.05 0.06 0.08 0.02 0.00 0.00 0.00 0.00 0.00 0.00 0.00 0.04 0.03 0.04 0.05 0.04 0.04 0.08 0.12 0.05
0.00 0.00 0.00 0.00 0.00 0.00 0.00 0.00 0.00 0.00 0.00 0.00 0.00 0.00 0.00 0.03 0.12 0.15 0.16 0.10 0.17 0.16 0.17 0.17 0.20 0.13 0.19 0.14 0.00 0.00 0.00 0.00 0.00 0.00 0.00 0.01 0.05 0.03 0.03 0.03 0.05 0.09 0.11 0.04
0.00 0.00 0.00 0.00 0.00 0.00 0.00 0.00 0.00 0.00 0.00 0.00 0.00 0.00 0.02 0.10 0.17 0.07 0.07 0.08 0.10 0.24 0.28 0.24 0.18 0.20 0.23 0.24 0.04 0.00 0.00 0.00 0.01 0.00 0.01 0.01 0.01 0.02 0.01 0.03 0.07 0.05 0.06 0.02
0.00 0.00 0.00 0.00 0.00 0.00 0.00 0.00 0.00 0.00 0.00 0.00 0.07 0.07 0.12 0.13 0.12 0.14 0.13 0.11 0.10 0.17 0.44 0.65 0.77 0.35 0.32 0.50 0.24 0.19 0.08 0.04 0.07 0.03 0.02 0.03 0.02 0.03 0.03 0.05 0.05 0.10 0.07 0.13
0.00 0.00 0.00 0.00 0.00 0.00 0.00 0.00 0.00 0.00 0.00 0.00 0.05 0.10 0.12 0.16 0.13 0.07 0.06 0.17 0.17 0.22 0.33 0.67 0.89 1.23 0.60 0.73 0.47 0.70 0.68 0.65 0.60 0.36 0.16 0.11 0.08 0.03 0.05 0.03 0.03 0.07 0.15 0.16
0.00 0.00 0.00 0.00 0.00 0.00 0.00 0.00 0.00 0.00 0.00 0.00 0.01 0.04 0.08 0.24 0.16 0.08 0.05 0.09 0.13 0.22 0.25 0.23 0.26 0.47 0.62 0.86 0.61 0.80 1.59 0.93 0.73 0.50 0.31 0.21 0.20 0.17 0.18 0.08 0.06 0.08 0.08 0.15
0.00 0.00 0.00 0.00 0.00 0.00 0.00 0.00 0.00 0.00 0.00 0.00 0.01 0.01 0.01 0.16 0.18 0.05 0.01 0.02 0.04 0.11 0.09 0.06 0.11 0.27 0.67 0.61 0.65 0.80 1.13 2.12 1.09 0.85 0.57 0.36 0.31 0.33 0.26 0.16 0.12 0.06 0.06 0.12
0.00 0.00 0.00 0.00 0.00 0.00 0.00 0.00 0.00 0.00 0.00 0.00 0.01 0.01 0.00 0.00 0.00 0.00 0.00 0.00 0.00 0.01 0.02 0.03 0.05 0.11 0.34 0.48 0.48 0.84 1.21 1.26 1.60 1.21 0.97 0.53 0.44 0.41 0.35 0.25 0.21 0.15 0.11 0.04
0.00 0.00 0.00 0.00 0.00 0.00 0.00 0.00 0.00 0.00 0.00 0.00 0.03 0.00 0.00 0.00 0.00 0.00 0.00 0.00 0.00 0.00 0.00 0.01 0.02 0.05 0.15 0.16 0.17 0.22 0.33 0.41 0.53 0.65 0.85 1.00 0.93 0.77 0.81 0.55 0.52 0.33 0.24 0.17
0.00 0.00 0.00 0.00 0.00 0.00 0.00 0.00 0.00 0.00 0.00 0.00 0.00 0.00 0.00 0.00 0.00 0.00 0.00 0.00 0.00 0.00 0.00 0.00 0.00 0.02 0.07 0.04 0.08 0.16 0.14 0.11 0.12 0.16 0.25 0.41 0.70 0.79 0.67 0.78 0.55 0.41 0.35 0.33
0.00 0.00 0.00 0.00 0.00 0.00 0.01 0.00 0.00 0.01 0.01 0.00 0.01 0.00 0.00 0.00 0.00 0.00 0.00 0.00 0.00 0.00 0.00 0.00 0.00 0.01 0.01 0.01 0.02 0.03 0.04 0.04 0.04 0.08 0.20 0.26 0.26 0.18 0.14 0.19 0.28 0.29 0.24 0.26
0.00 0.00 0.00 0.00 0.00 0.00 0.00 0.00 0.00 0.00 0.01 0.00 0.00 0.00 0.00 0.00 0.00 0.00 0.00 0.00 0.00 0.00 0.00 0.00 0.00 0.00 0.00 0.01 0.02 0.02 0.01 0.02 0.02 0.01 0.03 0.05 0.20 0.30 0.17 0.14 0.20 0.24 0.21 0.20
0.00 0.00 0.00 0.00 0.00 0.00 0.00 0.00 0.00 0.00 0.00 0.00 0.00 0.00 0.00 0.00 0.00 0.00 0.00 0.00 0.00 0.00 0.00 0.00 0.00 0.00 0.00 0.00 0.00 0.00 0.01 0.01 0.00 0.00 0.01 0.02 0.02 0.02 0.03 0.09 0.12 0.18 0.18 0.14
0.00 0.00 0.00 0.00 0.00 0.00 0.00 0.00 0.00 0.00 0.01 0.02 0.00 0.00 0.00 0.00 0.00 0.00 0.00 0.00 0.00 0.00 0.00 0.00 0.00 0.00 0.00 0.00 0.00 0.00 0.00 0.00 0.00 0.00 0.00 0.00 0.00 0.00 0.00 0.01 0.06 0.08 0.16 0.14
0.00 0.00 0.00 0.00 0.00 0.00 0.00 0.00 0.00 0.00 0.00 0.01 0.01 0.00 0.00 0.00 0.00 0.00 0.00 0.00 0.00 0.00 0.00 0.00 0.00 0.00 0.00 0.00 0.00 0.00 0.00 0.00 0.00 0.00 0.00 0.00 0.00 0.00 0.00 0.00 0.00 0.01 0.03 0.08
0.00 0.00 0.00 0.00 0.00 0.01 0.00 0.00 0.00 0.00 0.00 0.00 0.00 0.00 0.00 0.00 0.00 0.00 0.00 0.00 0.00 0.00 0.00 0.00 0.00 0.00 0.00 0.00 0.00 0.00 0.00 0.00 0.00 0.00 0.00 0.00 0.00 0.00 0.00 0.00 0.00 0.00 0.00 0.00
0.00 0.00 0.01 0.01 0.02 0.01 0.00 0.00 0.00 0.00 0.00 0.00 0.01 0.01 0.01 0.01 0.00 0.00 0.00 0.00 0.00 0.00 0.00 0.00 0.00 0.00 0.00 0.00 0.00 0.00 0.00 0.00 0.00 0.00 0.00 0.00 0.00 0.00 0.00 0.00 0.00 0.00 0.00 0.00
0.00 0.00 0.00 0.00 0.00 0.00 0.00 0.00 0.00 0.00 0.00 0.00 0.00 0.01 0.03 0.03 0.03 0.01 0.01 0.00 0.00 0.00 0.00 0.00 0.00 0.00 0.00 0.00 0.00 0.00 0.00 0.00 0.00 0.00 0.00 0.00 0.00 0.00 0.00 0.00 0.00 0.00 0.00 0.00
0.00 0.00 0.00 0.00 0.00 0.00 0.00 0.00 0.00 0.00 0.00 0.00 0.00 0.00 0.00 0.01 0.02 0.01 0.00 0.00 0.00 0.00 0.00 0.00 0.00 0.00 0.00 0.00 0.00 0.00 0.00 0.00 0.00 0.00 0.00 0.00 0.00 0.00 0.00 0.00 0.00 0.00 0.00 0.00
0.00 0.00 0.01 0.01 0.00 0.00 0.00 0.00 0.00 0.00 0.00 0.00 0.00 0.00 0.00 0.00 0.00 0.00 0.00 0.00 0.00 0.00 0.00 0.00 0.00 0.00 0.00 0.00 0.00 0.00 0.00 0.00 0.00 0.00 0.00 0.00 0.00 0.00 0.00 0.00 0.00 0.00 0.00 0.00

GFSCGP_prec_precacc12_093.txt.gz
Total_Precipitation_Accumulation
0.00 0.00 0.00 0.01 0.00 0.00 0.01 0.03 0.09 0.06 0.08 0.60 0.54 0.34 0.12 0.03 0.02 0.01 0.00 0.00 0.00 0.00 0.00 0.00 0.00 0.00 0.00 0.00 0.00 0.00 0.00 0.00 0.00 0.00 0.00 0.01 0.08 0.04 0.03 0.02 0.05 0.13 0.09 0.09
0.00 0.00 0.00 0.00 0.00 0.00 0.00 0.00 0.01 0.10 0.30 0.44 0.79 0.52 0.18 0.11 0.15 0.10 0.01 0.00 0.00 0.00 0.00 0.00 0.00 0.00 0.00 0.00 0.00 0.00 0.00 0.00 0.00 0.00 0.00 0.01 0.03 0.01 0.02 0.01 0.03 0.06 0.02 0.07
0.00 0.00 0.00 0.00 0.00 0.00 0.00 0.00 0.00 0.06 0.28 0.45 0.53 0.50 0.10 0.08 0.19 0.27 0.04 0.01 0.01 0.01 0.01 0.00 0.00 0.00 0.00 0.00 0.00 0.00 0.00 0.00 0.00 0.00 0.00 0.01 0.00 0.02 0.04 0.01 0.00 0.01 0.01 0.03
0.00 0.00 0.00 0.00 0.00 0.00 0.00 0.00 0.00 0.00 0.03 0.16 0.19 0.26 0.06 0.05 0.12 0.13 0.11 0.01 0.02 0.03 0.03 0.03 0.00 0.00 0.00 0.00 0.00 0.00 0.00 0.00 0.00 0.00 0.00 0.05 0.04 0.06 0.03 0.00 0.01 0.01 0.02 0.03
0.00 0.00 0.00 0.00 0.00 0.00 0.00 0.00 0.00 0.00 0.00 0.04 0.07 0.07 0.02 0.11 0.12 0.16 0.14 0.03 0.04 0.02 0.04 0.04 0.01 0.03 0.03 0.00 0.00 0.00 0.00 0.00 0.00 0.00 0.00 0.01 0.04 0.03 0.02 0.00 0.07 0.01 0.02 0.02
0.00 0.00 0.00 0.00 0.00 0.00 0.00 0.00 0.00 0.00 0.00 0.00 0.00 0.00 0.00 0.00 0.01 0.08 0.07 0.09 0.06 0.01 0.04 0.04 0.03 0.04 0.04 0.01 0.00 0.00 0.00 0.00 0.00 0.00 0.00 0.00 0.02 0.06 0.04 0.05 0.14 0.06 0.01 0.02
0.00 0.00 0.00 0.00 0.00 0.00 0.00 0.00 0.00 0.00 0.00 0.00 0.00 0.00 0.00 0.00 0.00 0.01 0.01 0.06 0.12 0.06 0.06 0.04 0.04 0.05 0.08 0.02 0.00 0.00 0.00 0.00 0.00 0.00 0.00 0.00 0.00 0.01 0.11 0.11 0.04 0.04 0.04 0.03
0.00 0.00 0.00 0.00 0.00 0.00 0.00 0.00 0.00 0.00 0.00 0.00 0.00 0.00 0.00 0.03 0.12 0.12 0.11 0.06 0.08 0.12 0.08 0.07 0.12 0.13 0.20 0.12 0.01 0.00 0.00 0.00 0.00 0.00 0.00 0.00 0.00 0.00 0.05 0.06 0.05 0.03 0.07 0.06
0.00 0.00 0.00 0.00 0.00 0.00 0.00 0.00 0.00 0.00 0.00 0.00 0.00 0.00 0.00 0.05 0.12 0.05 0.03 0.03 0.04 0.08 0.08 0.12 0.09 0.16 0.21 0.22 0.04 0.00 0.00 0.00 0.01 0.00 0.00 0.02 0.00 0.00 0.00 0.01 0.02 0.03 0.02 0.01
0.00 0.00 0.00 0.00 0.00 0.00 0.00 0.00 0.00 0.00 0.00 0.00 0.05 0.04 0.03 0.05 0.06 0.09 0.11 0.11 0.09 0.09 0.05 0.19 0.29 0.21 0.22 0.40 0.27 0.13 0.05 0.05 0.11 0.04 0.06 0.12 0.08 0.05 0.01 0.03 0.03 0.10 0.04 0.07
0.00 0.00 0.00 0.00 0.00 0.00 0.00 0.00 0.00 0.00 0.00 0.00 0.02 0.03 0.04 0.06 0.08 0.06 0.06 0.16 0.16 0.19 0.19 0.28 0.39 0.44 0.40 0.54 0.41 0.48 0.39 0.41 0.52 0.47 0.18 0.11 0.10 0.07 0.06 0.02 0.01 0.05 0.12 0.09
0.00 0.00 0.00 0.00 0.00 0.00 0.00 0.00 0.00 0.00 0.00 0.00 0.00 0.01 0.03 0.16 0.15 0.08 0.04 0.10 0.13 0.19 0.21 0.24 0.24 0.36 0.34 0.42 0.38 0.47 0.75 0.63 0.59 0.48 0.45 0.25 0.22 0.18 0.16 0.08 0.05 0.08 0.07 0.12
0.00 0.00 0.00 0.00 0.00 0.00 0.00 0.00 0.00 0.00 0.00 0.00 0.00 0.00 0.00 0.13 0.16 0.05 0.01 0.03 0.05 0.10 0.09 0.06 0.11 0.18 0.17 0.30 0.27 0.62 0.82 1.11 0.78 0.98 0.69 0.38 0.26 0.26 0.19 0.13 0.12 0.05 0.05 0.15
0.00 0.00 0.00 0.00 0.00 0.00 0.00 0.00 0.00 0.00 0.00 0.00 0.00 0.00 0.00 0.00 0.00 0.00 0.00 0.00 0.00 0.01 0.03 0.03 0.03 0.05 0.09 0.26 0.33 0.56 0.79 0.85 1.10 1.23 1.27 0.59 0.31 0.26 0.21 0.15 0.18 0.14 0.10 0.04
0.00 0.00 0.00 0.00 0.00 0.00 0.00 0.00 0.00 0.00 0.00 0.00 0.00 0.00 0.00 0.00 0.00 0.00 0.00 0.00 0.00 0.00 0.00 0.01 0.01 0.04 0.09 0.13 0.20 0.27 0.31 0.36 0.38 0.54 0.84 0.84 0.51 0.40 0.40 0.31 0.37 0.28 0.23 0.16
0.00 0.00 0.00 0.00 0.00 0.00 0.00 0.00 0.00 0.00 0.00 0.00 0.00 0.00 0.00 0.00 0.00 0.00 0.00 0.00 0.00 0.00 0.00 0.00 0.01 0.02 0.09 0.08 0.12 0.18 0.15 0.08 0.07 0.05 0.13 0.29 0.36 0.42 0.26 0.24 0.29 0.30 0.29 0.31
0.00 0.00 0.00 0.00 0.00 0.00 0.01 0.00 0.00 0.01 0.01 0.00 0.00 0.00 0.00 0.00 0.00 0.00 0.00 0.00 0.00 0.00 0.00 0.00 0.00 0.01 0.02 0.09 0.09 0.05 0.05 0.05 0.07 0.05 0.03 0.05 0.10 0.14 0.16 0.08 0.07 0.10 0.15 0.20
0.00 0.00 0.00 0.00 0.00 0.00 0.00 0.00 0.00 0.00 0.01 0.00 0.00 0.00 0.00 0.00 0.00 0.00 0.00 0.00 0.00 0.00 0.00 0.00 0.00 0.00 0.01 0.02 0.04 0.04 0.02 0.04 0.05 0.02 0.01 0.01 0.06 0.21 0.13 0.07 0.05 0.05 0.07 0.12
0.00 0.00 0.00 0.00 0.00 0.00 0.00 0.00 0.00 0.00 0.00 0.00 0.00 0.00 0.00 0.00 0.00 0.00 0.00 0.00 0.00 0.00 0.00 0.00 0.00 0.00 0.00 0.00 0.00 0.01 0.01 0.01 0.01 0.01 0.00 0.02 0.01 0.00 0.02 0.05 0.05 0.09 0.11 0.09
0.00 0.00 0.00 0.00 0.00 0.00 0.00 0.00 0.00 0.00 0.01 0.02 0.00 0.00 0.00 0.00 0.01 0.00 0.00 0.00 0.00 0.00 0.00 0.00 0.00 0.00 0.00 0.00 0.00 0.00 0.00 0.00 0.00 0.00 0.00 0.00 0.00 0.00 0.00 0.01 0.04 0.03 0.05 0.07
0.00 0.00 0.00 0.00 0.00 0.00 0.00 0.00 0.00 0.00 0.00 0.01 0.01 0.00 0.00 0.00 0.01 0.00 0.00 0.00 0.00 0.00 0.00 0.00 0.00 0.00 0.00 0.00 0.00 0.00 0.00 0.00 0.00 0.00 0.00 0.00 0.00 0.00 0.00 0.00 0.00 0.00 0.01 0.03
0.00 0.00 0.00 0.00 0.00 0.00 0.00 0.00 0.00 0.00 0.00 0.00 0.00 0.00 0.00 0.00 0.01 0.00 0.00 0.00 0.00 0.01 0.01 0.00 0.00 0.00 0.00 0.00 0.00 0.00 0.00 0.00 0.00 0.00 0.00 0.00 0.00 0.00 0.00 0.00 0.00 0.00 0.00 0.00
0.00 0.00 0.00 0.00 0.00 0.00 0.00 0.00 0.00 0.00 0.00 0.00 0.01 0.01 0.01 0.01 0.01 0.00 0.00 0.00 0.00 0.00 0.00 0.00 0.00 0.00 0.00 0.00 0.00 0.00 0.00 0.00 0.00 0.00 0.00 0.00 0.00 0.00 0.00 0.00 0.00 0.00 0.00 0.00
0.00 0.00 0.00 0.00 0.00 0.00 0.00 0.00 0.00 0.00 0.00 0.00 0.00 0.01 0.03 0.04 0.04 0.03 0.01 0.00 0.00 0.00 0.00 0.00 0.00 0.00 0.00 0.00 0.00 0.00 0.00 0.00 0.00 0.00 0.00 0.00 0.00 0.00 0.00 0.00 0.00 0.00 0.00 0.00
0.00 0.00 0.00 0.00 0.00 0.00 0.00 0.00 0.00 0.00 0.00 0.00 0.00 0.00 0.00 0.01 0.02 0.03 0.02 0.01 0.00 0.00 0.00 0.00 0.00 0.00 0.00 0.00 0.00 0.00 0.00 0.00 0.00 0.00 0.00 0.00 0.00 0.00 0.00 0.00 0.00 0.00 0.00 0.00
0.00 0.00 0.00 0.00 0.00 0.00 0.00 0.00 0.00 0.00 0.00 0.00 0.00 0.00 0.00 0.00 0.00 0.00 0.00 0.00 0.00 0.00 0.00 0.00 0.00 0.00 0.00 0.00 0.00 0.00 0.00 0.00 0.00 0.00 0.00 0.00 0.00 0.00 0.00 0.00 0.00 0.00 0.00 0.00

GFSCGP_prec_precacc12_096.txt.gz
Total_Precipitation_Accumulation
0.00 0.00 0.00 0.01 0.00 0.00 0.01 0.05 0.14 0.10 0.10 0.78 0.78 0.55 0.30 0.18 0.17 0.04 0.00 0.00 0.00 0.00 0.00 0.00 0.00 0.00 0.00 0.00 0.00 0.00 0.00 0.01 0.03 0.01 0.00 0.01 0.05 0.04 0.03 0.01 0.02 0.02 0.04 0.06
0.00 0.00 0.00 0.00 0.00 0.00 0.00 0.01 0.03 0.14 0.44 0.59 0.89 0.59 0.30 0.29 0.21 0.05 0.01 0.00 0.00 0.00 0.00 0.00 0.00 0.00 0.00 0.00 0.00 0.00 0.00 0.00 0.01 0.01 0.03 0.02 0.03 0.00 0.00 0.01 0.01 0.00 0.00 0.05
0.00 0.00 0.00 0.00 0.00 0.00 0.00 0.00 0.00 0.10 0.35 0.51 0.59 0.54 0.16 0.18 0.39 0.26 0.02 0.01 0.01 0.00 0.00 0.00 0.00 0.00 0.00 0.00 0.00 0.00 0.00 0.00 0.00 0.00 0.02 0.18 0.07 0.03 0.02 0.00 0.00 0.00 0.00 0.01
0.00 0.00 0.00 0.00 0.00 0.00 0.00 0.00 0.00 0.00 0.07 0.26 0.18 0.28 0.10 0.05 0.25 0.16 0.11 0.01 0.01 0.02 0.00 0.00 0.00 0.00 0.00 0.00 0.00 0.00 0.00 0.00 0.00 0.00 0.01 0.13 0.18 0.20 0.13 0.00 0.01 0.01 0.01 0.01
0.00 0.00 0.00 0.00 0.00 0.01 0.00 0.00 0.00 0.00 0.01 0.08 0.09 0.07 0.05 0.03 0.02 0.03 0.05 0.01 0.00 0.00 0.00 0.01 0.00 0.02 0.03 0.00 0.00 0.00 0.00 0.00 0.00 0.00 0.01 0.03 0.09 0.12 0.06 0.00 0.09 0.04 0.02 0.01
0.00 0.00 0.00 0.00 0.00 0.00 0.00 0.00 0.00 0.00 0.00 0.02 0.01 0.00 0.01 0.00 0.00 0.00 0.00 0.01 0.01 0.01 0.01 0.03 0.02 0.03 0.04 0.01 0.00 0.00 0.00 0.00 0.00 0.00 0.00 0.01 0.10 0.14 0.22 0.22 0.11 0.01 0.00 0.01
0.00 0.00 0.00 0.00 0.00 0.00 0.00 0.00 0.00 0.00 0.00 0.00 0.00 0.00 0.00 0.00 0.00 0.00 0.00 0.05 0.12 0.06 0.05 0.03 0.03 0.05 0.08 0.02 0.00 0.00 0.00 0.00 0.00 0.00 0.00 0.00 0.05 0.13 0.21 0.23 0.17 0.06 0.13 0.10
0.00 0.00 0.00 0.00 0.00 0.00 0.00 0.00 0.00 0.00 0.00 0.00 0.00 0.00 0.00 0.00 0.02 0.03 0.08 0.06 0.08 0.09 0.04 0.02 0.08 0.12 0.19 0.10 0.01 0.00 0.00 0.00 0.00 0.01 0.00 0.00 0.02 0.04 0.14 0.12 0.18 0.11 0.10 0.08
0.00 0.00 0.00 0.00 0.00 0.00 0.00 0.00 0.00 0.00 0.00 0.00 0.00 0.00 0.00 0.02 0.04 0.03 0.03 0.03 0.04 0.07 0.08 0.06 0.04 0.11 0.14 0.16 0.03 0.00 0.00 0.00 0.01 0.01 0.00 0.04 0.08 0.04 0.04 0.18 0.10 0.11 0.11 0.04
0.00 0.00 0.00 0.00 0.00 0.00 0.00 0.00 0.00 0.00 0.00 0.00 0.00 0.00 0.00 0.03 0.04 0.08 0.11 0.10 0.07 0.06 0.06 0.09 0.14 0.10 0.18 0.30 0.22 0.08 0.02 0.06 0.11 0.04 0.08 0.19 0.13 0.10 0.06 0.08 0.12 0.15 0.05 0.12
0.00 0.00 0.00 0.00 0.00 0.00 0.00 0.00 0.00 0.00 0.00 0.00 0.00 0.00 0.00 0.01 0.02 0.02 0.03 0.13 0.13 0.10 0.09 0.19 0.29 0.21 0.22 0.38 0.18 0.23 0.24 0.27 0.37 0.36 0.10 0.14 0.14 0.07 0.09 0.09 0.09 0.11 0.15 0.10
0.00 0.00 0.00 0.00 0.00 0.00 0.00 0.00 0.00 0.00 0.00 0.00 0.00 0.00 0.00 0.00 0.00 0.01 0.02 0.07 0.08 0.11 0.12 0.16 0.21 0.29 0.28 0.33 0.21 0.22 0.43 0.54 0.54 0.47 0.40 0.15 0.10 0.11 0.12 0.09 0.10 0.12 0.14 0.22
0.00 0.00 0.00 0.00 0.00 0.00 0.00 0.00 0.00 0.00 0.00 0.00 0.00 0.00 0.00 0.01 0.02 0.01 0.01 0.02 0.03 0.06 0.09 0.09 0.12 0.15 0.14 0.25 0.16 0.28 0.41 0.71 0.59 0.89 0.71 0.36 0.22 0.16 0.09 0.08 0.10 0.06 0.09 0.29
0.00 0.00 0.00 0.00 0.00 0.00 0.00 0.00 0.00 0.00 0.00 0.00 0.00 0.00 0.00 0.00 0.00 0.00 0.00 0.00 0.00 0.01 0.04 0.03 0.03 0.07 0.08 0.18 0.24 0.40 0.45 0.55 0.75 1.10 1.19 0.54 0.21 0.12 0.11 0.05 0.04 0.03 0.04 0.08
0.00 0.00 0.00 0.00 0.00 0.00 0.00 0.00 0.00 0.00 0.00 0.00 0.00 0.00 0.00 0.00 0.00 0.00 0.00 0.00 0.00 0.00 0.00 0.01 0.00 0.05 0.07 0.08 0.13 0.19 0.27 0.29 0.26 0.31 0.62 0.76 0.40 0.17 0.15 0.16 0.16 0.10 0.06 0.05
0.00 0.00 0.00 0.00 0.00 0.00 0.00 0.00 0.00 0.00 0.00 0.00 0.00 0.00 0.00 0.00 0.00 0.00 0.00 0.00 0.00 0.00 0.00 0.00 0.01 0.02 0.08 0.08 0.10 0.15 0.16 0.09 0.07 0.04 0.08 0.17 0.27 0.28 0.21 0.06 0.08 0.08 0.12 0.14
0.00 0.00 0.00 0.00 0.00 0.00 0.01 0.00 0.00 0.00 0.00 0.00 0.00 0.00 0.00 0.00 0.00 0.00 0.00 0.00 0.00 0.00 0.00 0.00 0.00 0.01 0.03 0.10 0.11 0.07 0.07 0.06 0.07 0.05 0.05 0.02 0.05 0.09 0.15 0.17 0.05 0.02 0.02 0.05
0.00 0.00 0.00 0.00 0.00 0.00 0.00 0.00 0.00 0.00 0.00 0.00 0.00 0.00 0.00 0.00 0.00 0.00 0.00 0.00 0.00 0.00 0.00 0.00 0.00 0.00 0.01 0.04 0.08 0.06 0.03 0.06 0.07 0.03 0.02 0.01 0.00 0.00 0.02 0.04 0.03 0.02 0.00 0.00
0.00 0.00 0.00 0.00 0.00 0.00 0.00 0.00 0.00 0.00 0.00 0.00 0.00 0.00 0.00 0.00 0.00 0.00 0.00 0.00 0.00 0.00 0.00 0.00 0.00 0.00 0.00 0.03 0.05 0.05 0.03 0.02 0.04 0.03 0.01 0.02 0.01 0.00 0.00 0.00 0.01 0.03 0.02 0.00
0.00 0.00 0.00 0.00 0.00 0.00 0.00 0.00 0.00 0.00 0.00 0.00 0.00 0.00 0.00 0.00 0.01 0.00 0.00 0.00 0.00 0.00 0.00 0.00 0.00 0.00 0.00 0.00 0.00 0.01 0.02 0.01 0.00 0.01 0.01 0.00 0.00 0.00 0.00 0.00 0.00 0.00 0.00 0.00
0.00 0.00 0.00 0.00 0.00 0.00 0.00 0.00 0.00 0.00 0.00 0.00 0.00 0.00 0.00 0.00 0.03 0.01 0.00 0.00 0.00 0.00 0.00 0.00 0.00 0.00 0.00 0.00 0.00 0.00 0.00 0.00 0.00 0.00 0.00 0.00 0.00 0.00 0.00 0.00 0.00 0.00 0.00 0.00
0.00 0.00 0.00 0.00 0.00 0.00 0.00 0.00 0.00 0.00 0.00 0.00 0.00 0.00 0.00 0.00 0.02 0.00 0.00 0.00 0.00 0.01 0.01 0.00 0.00 0.00 0.00 0.00 0.00 0.00 0.00 0.00 0.00 0.00 0.00 0.00 0.00 0.00 0.00 0.00 0.00 0.00 0.00 0.00
0.00 0.00 0.00 0.00 0.00 0.00 0.00 0.00 0.00 0.00 0.00 0.00 0.00 0.01 0.01 0.01 0.01 0.00 0.00 0.00 0.00 0.00 0.00 0.00 0.00 0.00 0.00 0.00 0.00 0.00 0.00 0.00 0.00 0.00 0.00 0.00 0.00 0.00 0.00 0.00 0.00 0.00 0.00 0.00
0.00 0.00 0.00 0.00 0.00 0.00 0.00 0.00 0.00 0.00 0.00 0.00 0.00 0.01 0.03 0.04 0.04 0.03 0.02 0.00 0.00 0.00 0.00 0.00 0.00 0.00 0.00 0.00 0.00 0.00 0.00 0.00 0.00 0.00 0.00 0.00 0.00 0.00 0.00 0.00 0.00 0.00 0.00 0.00
0.00 0.00 0.00 0.00 0.00 0.00 0.00 0.00 0.00 0.00 0.00 0.00 0.00 0.00 0.00 0.01 0.02 0.03 0.03 0.01 0.00 0.00 0.00 0.00 0.00 0.00 0.00 0.00 0.00 0.00 0.00 0.00 0.00 0.00 0.00 0.00 0.00 0.00 0.00 0.00 0.00 0.00 0.00 0.00
0.00 0.00 0.00 0.00 0.00 0.00 0.00 0.00 0.00 0.00 0.00 0.00 0.00 0.00 0.00 0.00 0.00 0.00 0.00 0.00 0.00 0.00 0.00 0.00 0.00 0.00 0.00 0.00 0.00 0.00 0.00 0.00 0.00 0.00 0.00 0.00 0.00 0.00 0.00 0.00 0.00 0.00 0.00 0.00

GFSCGP_prec_precacc12_099.txt.gz
Total_Precipitation_Accumulation
0.00 0.00 0.00 0.01 0.00 0.03 0.07 0.29 0.61 0.23 0.10 0.82 0.87 0.72 0.55 0.47 0.32 0.05 0.00 0.00 0.00 0.00 0.00 0.00 0.00 0.00 0.00 0.00 0.00 0.00 0.00 0.04 0.09 0.05 0.00 0.00 0.00 0.02 0.01 0.00 0.01 0.02 0.00 0.00
0.00 0.00 0.00 0.00 0.00 0.00 0.00 0.15 0.78 0.46 0.39 0.53 1.02 0.70 0.62 0.88 0.50 0.07 0.01 0.00 0.00 0.00 0.00 0.00 0.00 0.00 0.00 0.00 0.00 0.00 0.00 0.04 0.05 0.03 0.04 0.03 0.01 0.00 0.00 0.00 0.00 0.00 0.00 0.00
0.00 0.00 0.00 0.00 0.00 0.00 0.00 0.04 0.53 0.58 0.38 0.58 0.75 0.78 0.34 0.52 0.78 0.28 0.02 0.00 0.00 0.00 0.00 0.00 0.00 0.00 0.00 0.00 0.00 0.00 0.00 0.02 0.01 0.02 0.06 0.21 0.13 0.14 0.08 0.01 0.00 0.00 0.00 0.00
0.00 0.00 0.00 0.00 0.00 0.00 0.00 0.01 0.29 0.39 0.09 0.35 0.31 0.39 0.16 0.12 0.59 0.34 0.07 0.00 0.00 0.01 0.00 0.00 0.00 0.00 0.00 0.00 0.00 0.00 0.00 0.01 0.01 0.00 0.03 0.15 0.35 0.38 0.22 0.03 0.04 0.01 0.00 0.00
0.00 0.00 0.00 0.00 0.00 0.01 0.00 0.00 0.12 0.11 0.04 0.10 0.12 0.11 0.09 0.05 0.23 0.29 0.02 0.01 0.00 0.01 0.00 0.01 0.00 0.00 0.00 0.00 0.00 0.00 0.00 0.00 0.00 0.00 0.04 0.06 0.08 0.13 0.08 0.09 0.17 0.10 0.03 0.00
0.00 0.00 0.00 0.00 0.00 0.00 0.00 0.00 0.00 0.00 0.01 0.07 0.02 0.01 0.02 0.01 0.08 0.19 0.05 0.03 0.01 0.01 0.00 0.01 0.00 0.00 0.00 0.00 0.00 0.00 0.00 0.00 0.00 0.00 0.01 0.04 0.18 0.16 0.33 0.43 0.23 0.01 0.01 0.00
0.00 0.00 0.00 0.00 0.00 0.00 0.00 0.00 0.00 0.00 0.02 0.00 0.00 0.00 0.00 0.00 0.01 0.06 0.03 0.02 0.05 0.03 0.02 0.01 0.01 0.03 0.02 0.00 0.00 0.00 0.00 0.00 0.00 0.00 0.00 0.00 0.07 0.18 0.23 0.30 0.20 0.11 0.15 0.13
0.00 0.00 0.00 0.00 0.00 0.00 0.00 0.00 0.00 0.00 0.00 0.00 0.00 0.00 0.00 0.00 0.00 0.00 0.00 0.05 0.06 0.08 0.04 0.02 0.03 0.08 0.12 0.06 0.01 0.00 0.00 0.00 0.00 0.02 0.02 0.01 0.02 0.04 0.14 0.13 0.18 0.10 0.16 0.08
0.00 0.00 0.00 0.00 0.00 0.00 0.00 0.00 0.00 0.00 0.00 0.01 0.00 0.00 0.00 0.00 0.00 0.00 0.00 0.01 0.03 0.06 0.09 0.06 0.02 0.08 0.12 0.11 0.03 0.02 0.00 0.01 0.03 0.03 0.03 0.10 0.13 0.05 0.08 0.25 0.11 0.10 0.13 0.19
0.00 0.00 0.00 0.00 0.00 0.00 0.00 0.00 0.00 0.00 0.00 0.00 0.00 0.00 0.00 0.00 0.00 0.02 0.01 0.02 0.05 0.04 0.05 0.09 0.13 0.09 0.14 0.18 0.21 0.07 0.02 0.05 0.11 0.06 0.10 0.21 0.13 0.10 0.06 0.08 0.12 0.14 0.04 0.40
0.00 0.00 0.00 0.00 0.00 0.00 0.00 0.00 0.00 0.00 0.00 0.00 0.00 0.00 0.00 0.00 0.00 0.00 0.01 0.07 0.08 0.06 0.03 0.06 0.16 0.07 0.18 0.23 0.08 0.17 0.16 0.16 0.26 0.37 0.16 0.25 0.14 0.08 0.06 0.08 0.09 0.10 0.11 0.15
0.00 0.00 0.00 0.00 0.00 0.00 0.00 0.00 0.00 0.00 0.00 0.00 0.00 0.01 0.00 0.00 0.00 0.00 0.01 0.05 0.06 0.09 0.07 0.05 0.10 0.06 0.11 0.26 0.11 0.09 0.24 0.44 0.46 0.47 0.47 0.25 0.11 0.12 0.11 0.07 0.09 0.09 0.14 0.21
0.00 0.00 0.00 0.00 0.00 0.00 0.00 0.00 0.00 0.00 0.00 0.00 0.00 0.00 0.00 0.00 0.00 0.00 0.00 0.01 0.02 0.05 0.08 0.06 0.06 0.09 0.10 0.18 0.08 0.12 0.13 0.33 0.40 0.78 0.77 0.48 0.25 0.20 0.12 0.12 0.06 0.04 0.08 0.25
0.00 0.00 0.00 0.00 0.00 0.00 0.00 0.00 0.00 0.00 0.00 0.00 0.00 0.00 0.00 0.00 0.00 0.00 0.00 0.00 0.00 0.01 0.04 0.05 0.07 0.05 0.05 0.14 0.13 0.18 0.16 0.28 0.41 0.61 0.98 0.58 0.22 0.10 0.11 0.08 0.08 0.03 0.04 0.08
0.00 0.00 0.00 0.00 0.00 0.00 0.00 0.00 0.00 0.00 0.00 0.00 0.00 0.00 0.00 0.00 0.00 0.00 0.00 0.00 0.00 0.01 0.00 0.03 0.06 0.10 0.10 0.07 0.12 0.15 0.17 0.26 0.22 0.19 0.40 0.61 0.39 0.15 0.09 0.10 0.12 0.13 0.08 0.07
0.00 0.00 0.00 0.00 0.00 0.00 0.00 0.00 0.00 0.00 0.00 0.00 0.00 0.00 0.00 0.00 0.00 0.00 0.00 0.00 0.00 0.00 0.00 0.01 0.04 0.06 0.09 0.09 0.11 0.17 0.20 0.10 0.08 0.07 0.08 0.07 0.19 0.33 0.30 0.15 0.12 0.07 0.06 0.06
0.00 0.02 0.00 0.00 0.00 0.00 0.00 0.00 0.00 0.00 0.00 0.00 0.00 0.00 0.00 0.00 0.00 0.00 0.00 0.00 0.00 0.00 0.00 0.00 0.01 0.01 0.04 0.11 0.12 0.07 0.10 0.15 0.09 0.09 0.07 0.02 0.02 0.04 0.14 0.18 0.13 0.09 0.09 0.05
0.00 0.04 0.01 0.02 0.01 0.01 0.00 0.00 0.00 0.00 0.00 0.00 0.00 0.00 0.00 0.00 0.00 0.00 0.00 0.00 0.00 0.00 0.00 0.00 0.00 0.00 0.01 0.04 0.11 0.08 0.08 0.10 0.10 0.05 0.02 0.00 0.00 0.00 0.01 0.01 0.01 0.02 0.01 0.00
0.00 0.01 0.01 0.01 0.05 0.03 0.00 0.00 0.00 0.00 0.00 0.00 0.00 0.00 0.00 0.00 0.00 0.00 0.00 0.00 0.00 0.00 0.00 0.00 0.00 0.00 0.00 0.05 0.12 0.09 0.07 0.12 0.12 0.07 0.04 0.00 0.00 0.00 0.00 0.00 0.00 0.00 0.01 0.00
0.00 0.00 0.00 0.00 0.03 0.03 0.02 0.00 0.00 0.00 0.00 0.00 0.00 0.00 0.00 0.00 0.01 0.00 0.00 0.00 0.00 0.00 0.00 0.00 0.00 0.00 0.00 0.01 0.03 0.04 0.05 0.05 0.05 0.07 0.04 0.01 0.00 0.00 0.00 0.00 0.00 0.00 0.00 0.00
0.00 0.00 0.00 0.00 0.00 0.03 0.01 0.00 0.00 0.00 0.00 0.00 0.00 0.00 0.00 0.00 0.06 0.03 0.00 0.00 0.00 0.00 0.00 0.00 0.00 0.00 0.00 0.00 0.00 0.00 0.00 0.01 0.01 0.01 0.01 0.01 0.00 0.00 0.00 0.00 0.00 0.00 0.00 0.00
0.00 0.00 0.00 0.00 0.01 0.00 0.00 0.00 0.00 0.00 0.00 0.00 0.00 0.00 0.00 0.00 0.02 0.00 0.00 0.00 0.00 0.01 0.01 0.00 0.00 0.00 0.00 0.00 0.00 0.00 0.00 0.00 0.00 0.00 0.00 0.00 0.00 0.00 0.00 0.00 0.00 0.00 0.00 0.00
0.00 0.00 0.00 0.00 0.00 0.00 0.00 0.00 0.00 0.00 0.00 0.00 0.00 0.00 0.01 0.01 0.01 0.00 0.00 0.00 0.00 0.00 0.00 0.00 0.00 0.00 0.00 0.00 0.00 0.00 0.00 0.00 0.00 0.00 0.00 0.00 0.00 0.00 0.00 0.00 0.00 0.00 0.00 0.00
0.00 0.00 0.00 0.00 0.00 0.00 0.00 0.00 0.00 0.00 0.00 0.00 0.00 0.00 0.01 0.03 0.04 0.03 0.02 0.00 0.00 0.01 0.01 0.00 0.00 0.00 0.00 0.00 0.00 0.00 0.00 0.00 0.00 0.00 0.00 0.00 0.00 0.00 0.00 0.00 0.00 0.00 0.00 0.00
0.00 0.00 0.00 0.00 0.00 0.00 0.00 0.00 0.00 0.00 0.00 0.00 0.00 0.00 0.00 0.01 0.02 0.03 0.03 0.01 0.00 0.00 0.00 0.00 0.00 0.00 0.00 0.00 0.00 0.00 0.00 0.00 0.00 0.00 0.00 0.00 0.00 0.00 0.00 0.00 0.00 0.00 0.00 0.00
0.00 0.00 0.00 0.00 0.00 0.00 0.00 0.00 0.00 0.00 0.00 0.00 0.00 0.00 0.00 0.00 0.00 0.00 0.00 0.00 0.00 0.00 0.00 0.00 0.00 0.00 0.00 0.00 0.00 0.00 0.00 0.00 0.00 0.00 0.00 0.00 0.00 0.00 0.00 0.00 0.00 0.00 0.00 0.00

GFSCGP_prec_precacc12_102.txt.gz
Total_Precipitation_Accumulation
0.00 0.00 0.00 0.01 0.00 0.05 0.38 0.52 0.91 0.65 0.31 0.64 0.69 0.62 0.63 0.49 0.32 0.05 0.00 0.00 0.00 0.00 0.00 0.00 0.00 0.00 0.00 0.00 0.00 0.00 0.01 0.04 0.10 0.05 0.01 0.00 0.00 0.00 0.00 0.00 0.00 0.00 0.00 0.00
0.00 0.00 0.00 0.00 0.00 0.00 0.03 0.24 1.17 1.29 0.79 0.57 0.69 0.54 0.62 1.21 0.55 0.09 0.01 0.00 0.00 0.00 0.00 0.00 0.00 0.00 0.00 0.00 0.00 0.00 0.03 0.06 0.06 0.04 0.06 0.07 0.02 0.01 0.01 0.00 0.00 0.00 0.00 0.00
0.00 0.00 0.00 0.00 0.00 0.00 0.00 0.05 0.82 1.77 1.37 0.91 0.56 0.75 0.47 0.84 1.10 0.31 0.04 0.00 0.02 0.00 0.00 0.00 0.00 0.00 0.00 0.00 0.00 0.00 0.02 0.07 0.03 0.08 0.10 0.28 0.21 0.22 0.15 0.05 0.02 0.00 0.00 0.00
0.00 0.00 0.00 0.00 0.00 0.01 0.01 0.07 0.34 1.12 1.24 0.70 0.27 0.39 0.34 0.31 0.78 0.53 0.10 0.00 0.01 0.01 0.00 0.00 0.00 0.00 0.00 0.00 0.00 0.00 0.01 0.08 0.04 0.06 0.09 0.19 0.40 0.44 0.27 0.13 0.28 0.17 0.00 0.00
0.00 0.00 0.00 0.00 0.00 0.02 0.00 0.00 0.17 0.62 0.83 0.51 0.15 0.13 0.12 0.07 0.26 0.48 0.10 0.04 0.01 0.01 0.01 0.01 0.00 0.00 0.00 0.00 0.00 0.00 0.00 0.01 0.02 0.03 0.18 0.12 0.10 0.15 0.14 0.19 0.42 0.23 0.06 0.01
0.00 0.00 0.00 0.00 0.00 0.00 0.00 0.00 0.00 0.24 0.82 0.32 0.04 0.02 0.05 0.01 0.08 0.28 0.12 0.19 0.04 0.02 0.01 0.01 0.00 0.00 0.00 0.00 0.00 0.00 0.00 0.00 0.01 0.01 0.03 0.14 0.24 0.23 0.41 0.67 0.39 0.13 0.10 0.02
0.00 0.00 0.00 0.00 0.00 0.00 0.00 0.00 0.02 0.11 0.31 0.18 0.06 0.01 0.01 0.00 0.01 0.08 0.05 0.12 0.07 0.05 0.02 0.01 0.01 0.00 0.00 0.00 0.00 0.00 0.00 0.00 0.00 0.00 0.00 0.01 0.11 0.24 0.31 0.38 0.23 0.18 0.30 0.37
0.00 0.00 0.00 0.00 0.00 0.00 0.00 0.00 0.00 0.02 0.04 0.11 0.07 0.03 0.00 0.00 0.00 0.00 0.00 0.02 0.22 0.09 0.05 0.04 0.03 0.06 0.05 0.02 0.01 0.06 0.02 0.02 0.00 0.02 0.02 0.01 0.03 0.04 0.16 0.18 0.26 0.30 0.35 0.37
0.00 0.00 0.00 0.00 0.00 0.00 0.00 0.00 0.00 0.00 0.01 0.03 0.07 0.07 0.00 0.00 0.00 0.00 0.00 0.00 0.08 0.06 0.12 0.07 0.03 0.07 0.29 0.14 0.15 0.04 0.08 0.06 0.05 0.03 0.03 0.10 0.13 0.05 0.10 0.28 0.12 0.13 0.23 0.45
0.00 0.00 0.00 0.00 0.00 0.00 0.00 0.00 0.00 0.00 0.00 0.02 0.03 0.04 0.01 0.00 0.00 0.00 0.00 0.00 0.00 0.02 0.09 0.13 0.10 0.08 0.11 0.16 0.59 0.25 0.05 0.06 0.14 0.04 0.09 0.21 0.13 0.10 0.06 0.08 0.11 0.19 0.30 1.42
0.00 0.00 0.00 0.00 0.00 0.00 0.00 0.00 0.00 0.00 0.00 0.00 0.02 0.05 0.01 0.00 0.00 0.00 0.00 0.00 0.00 0.00 0.04 0.11 0.13 0.12 0.04 0.05 0.10 0.18 0.12 0.06 0.07 0.19 0.22 0.36 0.20 0.09 0.07 0.09 0.09 0.11 0.15 0.39
0.00 0.00 0.00 0.00 0.00 0.00 0.00 0.00 0.00 0.00 0.00 0.00 0.00 0.05 0.11 0.11 0.01 0.00 0.00 0.01 0.00 0.04 0.05 0.12 0.14 0.19 0.04 0.07 0.04 0.05 0.15 0.27 0.16 0.22 0.39 0.27 0.41 0.25 0.12 0.11 0.12 0.10 0.10 0.14
0.00 0.00 0.00 0.00 0.00 0.00 0.00 0.00 0.00 0.00 0.00 0.00 0.00 0.01 0.01 0.05 0.01 0.00 0.00 0.01 0.02 0.11 0.09 0.08 0.12 0.16 0.15 0.09 0.02 0.06 0.08 0.18 0.18 0.44 0.52 0.44 0.34 0.25 0.20 0.27 0.40 0.19 0.12 0.24
0.00 0.00 0.00 0.00 0.00 0.00 0.00 0.00 0.00 0.00 0.00 0.00 0.00 0.00 0.00 0.00 0.00 0.00 0.00 0.00 0.01 0.03 0.13 0.11 0.09 0.09 0.11 0.10 0.07 0.03 0.03 0.13 0.25 0.42 0.67 0.49 0.23 0.12 0.13 0.10 0.09 0.06 0.08 0.13
0.00 0.00 0.00 0.00 0.00 0.00 0.00 0.00 0.00 0.00 0.00 0.00 0.00 0.00 0.00 0.01 0.00 0.00 0.00 0.00 0.00 0.01 0.02 0.07 0.14 0.26 0.13 0.06 0.08 0.10 0.07 0.12 0.12 0.15 0.21 0.27 0.27 0.14 0.09 0.11 0.13 0.13 0.08 0.06
0.00 0.00 0.00 0.00 0.00 0.00 0.00 0.00 0.00 0.00 0.00 0.00 0.00 0.00 0.17 0.27 0.28 0.01 0.00 0.00 0.00 0.00 0.00 0.03 0.07 0.07 0.10 0.12 0.08 0.10 0.15 0.06 0.07 0.08 0.11 0.09 0.08 0.27 0.31 0.18 0.17 0.18 0.19 0.10
0.00 0.02 0.00 0.01 0.00 0.00 0.00 0.00 0.00 0.00 0.00 0.00 0.00 0.00 0.04 0.19 0.27 0.03 0.00 0.00 0.00 0.00 0.00 0.02 0.03 0.02 0.08 0.18 0.11 0.05 0.10 0.17 0.15 0.13 0.12 0.09 0.08 0.04 0.15 0.23 0.23 0.23 0.28 0.18
0.00 0.07 0.02 0.17 0.03 0.02 0.01 0.00 0.00 0.00 0.00 0.00 0.00 0.00 0.01 0.09 0.00 0.00 0.00 0.00 0.00 0.00 0.00 0.00 0.01 0.03 0.03 0.06 0.12 0.09 0.10 0.10 0.14 0.09 0.03 0.02 0.02 0.00 0.00 0.00 0.01 0.03 0.09 0.12
0.00 0.02 0.09 0.12 0.11 0.07 0.01 0.00 0.00 0.01 0.01 0.00 0.00 0.00 0.00 0.10 0.01 0.00 0.00 0.00 0.00 0.00 0.00 0.00 0.00 0.00 0.00 0.06 0.14 0.10 0.13 0.22 0.19 0.12 0.04 0.01 0.00 0.00 0.00 0.00 0.01 0.01 0.03 0.03
0.00 0.01 0.11 0.04 0.13 0.16 0.08 0.01 0.00 0.00 0.10 0.04 0.01 0.00 0.00 0.00 0.03 0.01 0.00 0.00 0.00 0.00 0.00 0.00 0.00 0.00 0.00 0.01 0.04 0.07 0.11 0.09 0.10 0.10 0.06 0.02 0.01 0.01 0.01 0.00 0.00 0.00 0.01 0.04
0.00 0.00 0.02 0.07 0.11 0.09 0.07 0.02 0.00 0.00 0.01 0.00 0.00 0.00 0.00 0.00 0.06 0.03 0.00 0.00 0.00 0.00 0.00 0.00 0.00 0.00 0.00 0.00 0.00 0.02 0.02 0.03 0.03 0.03 0.06 0.03 0.01 0.02 0.01 0.00 0.00 0.00 0.00 0.00
0.00 0.00 0.00 0.00 0.06 0.06 0.00 0.00 0.00 0.01 0.00 0.00 0.00 0.00 0.00 0.00 0.01 0.00 0.00 0.00 0.00 0.01 0.01 0.00 0.00 0.00 0.00 0.00 0.00 0.00 0.00 0.01 0.01 0.01 0.01 0.01 0.01 0.01 0.00 0.00 0.00 0.00 0.00 0.00
0.00 0.00 0.00 0.00 0.04 0.02 0.00 0.00 0.00 0.00 0.00 0.00 0.00 0.00 0.00 0.00 0.01 0.00 0.00 0.00 0.00 0.00 0.00 0.00 0.00 0.00 0.00 0.00 0.00 0.00 0.00 0.00 0.00 0.00 0.01 0.00 0.00 0.00 0.00 0.00 0.00 0.00 0.00 0.00
0.00 0.00 0.00 0.00 0.00 0.00 0.00 0.00 0.00 0.00 0.00 0.00 0.00 0.00 0.00 0.00 0.01 0.01 0.01 0.00 0.00 0.01 0.01 0.00 0.00 0.00 0.00 0.00 0.00 0.00 0.00 0.00 0.00 0.00 0.00 0.00 0.00 0.00 0.00 0.01 0.01 0.00 0.00 0.00
0.00 0.00 0.00 0.00 0.00 0.00 0.00 0.00 0.00 0.00 0.00 0.00 0.00 0.00 0.00 0.00 0.00 0.01 0.02 0.01 0.00 0.00 0.00 0.00 0.00 0.00 0.00 0.00 0.00 0.00 0.00 0.00 0.00 0.00 0.00 0.00 0.00 0.00 0.00 0.00 0.00 0.00 0.00 0.00
0.00 0.00 0.00 0.00 0.00 0.00 0.00 0.00 0.00 0.00 0.00 0.00 0.00 0.00 0.00 0.00 0.00 0.00 0.00 0.00 0.00 0.00 0.00 0.00 0.00 0.00 0.00 0.00 0.00 0.00 0.00 0.00 0.00 0.00 0.00 0.00 0.00 0.00 0.00 0.00 0.00 0.00 0.00 0.00

GFSCGP_prec_precacc12_105.txt.gz
Total_Precipitation_Accumulation
0.00 0.00 0.00 0.00 0.00 0.05 0.38 0.61 0.99 1.04 1.50 1.34 0.70 0.56 0.61 0.48 0.31 0.05 0.00 0.00 0.00 0.00 0.00 0.00 0.00 0.00 0.00 0.00 0.00 0.00 0.01 0.04 0.10 0.06 0.01 0.01 0.01 0.00 0.00 0.00 0.00 0.00 0.00 0.00
0.00 0.00 0.00 0.00 0.00 0.00 0.06 0.29 1.30 1.44 1.44 1.04 0.70 0.40 0.59 1.18 0.52 0.09 0.01 0.01 0.00 0.00 0.00 0.00 0.00 0.00 0.00 0.00 0.00 0.00 0.03 0.06 0.06 0.05 0.07 0.08 0.03 0.02 0.01 0.01 0.00 0.00 0.00 0.00
0.00 0.00 0.00 0.00 0.00 0.02 0.03 0.08 0.84 1.85 1.48 1.35 0.84 0.61 0.47 0.84 1.10 0.31 0.04 0.00 0.02 0.00 0.00 0.00 0.00 0.00 0.00 0.00 0.00 0.00 0.02 0.09 0.04 0.09 0.10 0.29 0.21 0.23 0.20 0.09 0.07 0.01 0.00 0.00
0.00 0.00 0.00 0.00 0.00 0.01 0.08 0.13 0.38 1.14 1.36 1.24 1.01 0.55 0.43 0.36 0.81 0.55 0.10 0.00 0.01 0.02 0.00 0.00 0.00 0.00 0.00 0.00 0.00 0.00 0.01 0.10 0.07 0.07 0.09 0.17 0.38 0.43 0.28 0.15 0.31 0.18 0.01 0.00
0.00 0.00 0.00 0.00 0.00 0.02 0.03 0.03 0.18 0.62 0.93 0.85 0.62 0.43 0.22 0.10 0.28 0.48 0.10 0.04 0.02 0.02 0.01 0.02 0.00 0.00 0.00 0.00 0.00 0.00 0.00 0.03 0.03 0.04 0.19 0.15 0.09 0.17 0.19 0.21 0.44 0.23 0.07 0.01
0.00 0.00 0.00 0.00 0.00 0.01 0.01 0.03 0.03 0.25 0.90 0.54 0.18 0.17 0.12 0.02 0.08 0.28 0.12 0.19 0.04 0.03 0.02 0.03 0.00 0.00 0.00 0.00 0.00 0.00 0.00 0.00 0.01 0.01 0.05 0.16 0.25 0.23 0.45 0.66 0.41 0.15 0.14 0.03
0.00 0.00 0.00 0.00 0.00 0.00 0.00 0.01 0.10 0.16 0.45 0.42 0.11 0.12 0.17 0.00 0.01 0.08 0.05 0.12 0.08 0.05 0.02 0.03 0.02 0.02 0.00 0.00 0.00 0.00 0.00 0.00 0.00 0.00 0.00 0.01 0.14 0.27 0.25 0.31 0.26 0.22 0.32 0.45
0.00 0.00 0.00 0.00 0.00 0.00 0.00 0.00 0.01 0.04 0.09 0.16 0.13 0.31 0.09 0.01 0.00 0.00 0.00 0.04 0.22 0.06 0.04 0.04 0.03 0.08 0.09 0.01 0.01 0.06 0.02 0.02 0.00 0.02 0.02 0.01 0.03 0.05 0.15 0.15 0.41 0.41 0.42 0.60
0.00 0.00 0.00 0.00 0.00 0.00 0.00 0.00 0.00 0.01 0.04 0.07 0.23 0.40 0.10 0.02 0.00 0.00 0.00 0.00 0.08 0.04 0.07 0.03 0.02 0.19 0.51 0.24 0.20 0.07 0.08 0.07 0.05 0.03 0.03 0.08 0.13 0.06 0.10 0.31 0.26 0.29 0.36 0.60
0.00 0.00 0.00 0.00 0.00 0.00 0.00 0.00 0.00 0.00 0.00 0.05 0.18 0.57 0.22 0.01 0.00 0.00 0.00 0.00 0.00 0.01 0.09 0.09 0.06 0.12 0.37 0.51 0.70 0.43 0.12 0.09 0.10 0.03 0.05 0.10 0.05 0.06 0.06 0.11 0.20 0.25 0.37 1.44
0.00 0.00 0.00 0.00 0.00 0.00 0.00 0.00 0.00 0.00 0.00 0.00 0.06 0.10 0.05 0.02 0.00 0.00 0.00 0.01 0.00 0.00 0.05 0.13 0.09 0.14 0.14 0.20 0.21 0.79 0.17 0.09 0.05 0.05 0.26 0.46 0.18 0.06 0.05 0.09 0.10 0.12 0.19 0.41
0.00 0.00 0.00 0.00 0.00 0.00 0.00 0.00 0.00 0.00 0.00 0.00 0.00 0.08 0.16 0.15 0.02 0.01 0.02 0.04 0.05 0.05 0.07 0.13 0.13 0.35 0.21 0.10 0.10 0.15 0.19 0.28 0.21 0.21 0.29 0.25 0.45 0.36 0.16 0.14 0.14 0.13 0.12 0.15
0.00 0.00 0.00 0.00 0.00 0.00 0.00 0.00 0.00 0.00 0.00 0.00 0.00 0.02 0.01 0.06 0.03 0.00 0.00 0.02 0.05 0.15 0.19 0.22 0.33 0.57 0.37 0.12 0.10 0.09 0.14 0.27 0.25 0.26 0.35 0.35 0.32 0.32 0.32 0.30 0.46 0.23 0.14 0.20
0.00 0.00 0.00 0.00 0.00 0.00 0.00 0.00 0.00 0.00 0.00 0.00 0.00 0.00 0.01 0.00 0.00 0.07 0.15 0.17 0.15 0.14 0.28 0.27 0.28 0.39 0.36 0.30 0.11 0.09 0.09 0.09 0.16 0.18 0.21 0.21 0.21 0.19 0.20 0.13 0.12 0.08 0.12 0.14
0.00 0.00 0.00 0.00 0.00 0.00 0.00 0.00 0.00 0.00 0.00 0.00 0.00 0.01 0.02 0.04 0.06 0.10 0.21 0.20 0.23 0.19 0.11 0.16 0.43 0.59 0.36 0.46 0.35 0.23 0.07 0.04 0.04 0.07 0.08 0.08 0.11 0.09 0.09 0.11 0.13 0.15 0.09 0.10
0.00 0.00 0.00 0.00 0.00 0.00 0.00 0.00 0.00 0.00 0.00 0.00 0.00 0.02 0.24 0.39 0.64 0.21 0.05 0.02 0.07 0.10 0.12 0.13 0.35 0.36 0.41 0.19 0.12 0.09 0.11 0.04 0.03 0.06 0.10 0.09 0.09 0.13 0.25 0.20 0.17 0.18 0.19 0.13
0.00 0.02 0.00 0.01 0.01 0.00 0.00 0.00 0.00 0.00 0.00 0.00 0.00 0.00 0.04 0.21 0.41 0.27 0.03 0.01 0.00 0.01 0.05 0.10 0.16 0.17 0.18 0.28 0.10 0.03 0.08 0.15 0.09 0.09 0.11 0.09 0.10 0.06 0.13 0.22 0.23 0.23 0.28 0.19
0.00 0.07 0.02 0.17 0.04 0.04 0.03 0.01 0.01 0.01 0.02 0.01 0.01 0.00 0.02 0.10 0.04 0.01 0.01 0.01 0.00 0.00 0.00 0.00 0.02 0.08 0.12 0.11 0.13 0.08 0.12 0.09 0.10 0.09 0.04 0.03 0.02 0.00 0.00 0.00 0.01 0.03 0.09 0.15
0.00 0.02 0.10 0.12 0.12 0.11 0.03 0.03 0.01 0.01 0.04 0.06 0.12 0.08 0.02 0.13 0.13 0.07 0.02 0.01 0.00 0.00 0.00 0.00 0.01 0.02 0.03 0.08 0.20 0.14 0.17 0.32 0.21 0.12 0.06 0.02 0.00 0.00 0.00 0.00 0.01 0.01 0.03 0.04
0.00 0.01 0.12 0.10 0.27 0.20 0.11 0.03 0.01 0.00 0.12 0.06 0.13 0.16 0.15 0.11 0.10 0.09 0.01 0.02 0.00 0.00 0.00 0.00 0.00 0.00 0.00 0.01 0.04 0.07 0.12 0.16 0.12 0.12 0.11 0.05 0.02 0.01 0.01 0.00 0.00 0.00 0.01 0.05
0.00 0.01 0.02 0.08 0.16 0.12 0.07 0.03 0.01 0.02 0.03 0.07 0.05 0.35 0.49 0.87 0.39 0.21 0.07 0.02 0.00 0.00 0.00 0.00 0.00 0.00 0.00 0.00 0.01 0.03 0.04 0.04 0.05 0.05 0.09 0.06 0.02 0.03 0.01 0.00 0.00 0.00 0.00 0.00
0.01 0.04 0.02 0.01 0.27 0.11 0.00 0.00 0.00 0.01 0.00 0.01 0.02 0.39 0.15 0.20 0.16 0.04 0.08 0.02 0.00 0.00 0.00 0.00 0.00 0.00 0.00 0.00 0.00 0.01 0.02 0.02 0.02 0.01 0.02 0.03 0.02 0.01 0.00 0.00 0.00 0.00 0.00 0.00
0.00 0.00 0.02 0.03 0.14 0.05 0.00 0.01 0.01 0.00 0.00 0.00 0.00 0.09 0.07 0.07 0.05 0.00 0.01 0.00 0.00 0.00 0.00 0.00 0.00 0.00 0.00 0.00 0.00 0.00 0.00 0.00 0.00 0.00 0.01 0.00 0.00 0.00 0.00 0.00 0.00 0.00 0.00 0.00
0.00 0.00 0.00 0.00 0.00 0.00 0.00 0.01 0.00 0.00 0.00 0.00 0.00 0.00 0.00 0.01 0.03 0.00 0.00 0.00 0.00 0.01 0.01 0.00 0.00 0.00 0.00 0.00 0.00 0.00 0.00 0.00 0.00 0.00 0.00 0.00 0.00 0.00 0.00 0.01 0.01 0.01 0.00 0.00
0.00 0.00 0.00 0.00 0.00 0.00 0.00 0.00 0.00 0.00 0.00 0.00 0.00 0.00 0.00 0.00 0.00 0.00 0.00 0.00 0.00 0.00 0.00 0.00 0.00 0.00 0.00 0.00 0.00 0.00 0.00 0.00 0.00 0.00 0.00 0.00 0.00 0.00 0.00 0.00 0.00 0.00 0.00 0.00
0.00 0.00 0.00 0.00 0.00 0.00 0.00 0.00 0.00 0.00 0.00 0.00 0.00 0.00 0.00 0.00 0.00 0.00 0.00 0.00 0.00 0.00 0.00 0.00 0.00 0.00 0.00 0.00 0.00 0.00 0.00 0.00 0.00 0.00 0.00 0.00 0.00 0.00 0.00 0.00 0.00 0.00 0.00 0.00

GFSCGP_prec_precacc12_108.txt.gz
Total_Precipitation_Accumulation
0.00 0.00 0.00 0.00 0.00 0.06 0.38 0.66 1.05 1.16 1.74 1.63 1.03 0.45 0.51 0.33 0.15 0.01 0.00 0.00 0.00 0.00 0.00 0.00 0.00 0.00 0.00 0.00 0.00 0.00 0.00 0.03 0.06 0.05 0.02 0.02 0.02 0.00 0.01 0.03 0.00 0.00 0.00 0.01
0.00 0.00 0.00 0.00 0.00 0.01 0.11 0.36 1.33 1.42 1.41 1.16 1.11 0.54 0.54 1.01 0.40 0.07 0.01 0.01 0.00 0.00 0.00 0.00 0.00 0.00 0.00 0.00 0.00 0.00 0.03 0.06 0.04 0.03 0.04 0.06 0.03 0.02 0.02 0.05 0.03 0.01 0.00 0.00
0.00 0.00 0.00 0.00 0.00 0.05 0.07 0.11 0.87 1.81 1.42 1.30 0.90 1.01 0.48 0.73 0.83 0.22 0.03 0.00 0.02 0.00 0.00 0.00 0.00 0.00 0.00 0.00 0.00 0.00 0.02 0.09 0.04 0.09 0.08 0.11 0.15 0.20 0.19 0.12 0.08 0.01 0.02 0.02
0.00 0.00 0.00 0.00 0.00 0.01 0.10 0.14 0.40 1.14 1.33 1.16 1.10 0.83 0.72 0.37 0.64 0.46 0.08 0.00 0.01 0.02 0.00 0.00 0.00 0.00 0.00 0.00 0.00 0.00 0.01 0.10 0.07 0.07 0.08 0.09 0.23 0.28 0.18 0.17 0.31 0.18 0.02 0.02
0.00 0.00 0.00 0.00 0.00 0.01 0.04 0.03 0.18 0.62 0.93 0.82 0.69 0.65 0.47 0.30 0.28 0.47 0.09 0.04 0.02 0.02 0.01 0.02 0.00 0.00 0.00 0.00 0.00 0.00 0.00 0.03 0.03 0.04 0.19 0.13 0.05 0.07 0.15 0.20 0.36 0.18 0.05 0.01
0.00 0.00 0.00 0.00 0.00 0.00 0.01 0.04 0.04 0.25 0.90 0.54 0.24 0.33 0.31 0.21 0.11 0.28 0.12 0.19 0.04 0.03 0.02 0.03 0.00 0.00 0.00 0.00 0.00 0.00 0.00 0.00 0.01 0.01 0.04 0.14 0.17 0.15 0.30 0.51 0.33 0.14 0.13 0.03
0.00 0.00 0.00 0.00 0.02 0.03 0.00 0.01 0.11 0.18 0.46 0.43 0.12 0.15 0.28 0.02 0.02 0.08 0.05 0.13 0.09 0.05 0.02 0.03 0.02 0.02 0.00 0.00 0.00 0.00 0.00 0.00 0.00 0.00 0.00 0.01 0.10 0.15 0.16 0.17 0.14 0.19 0.23 0.37
0.00 0.00 0.00 0.00 0.00 0.00 0.00 0.00 0.01 0.05 0.11 0.19 0.17 0.34 0.13 0.01 0.00 0.00 0.00 0.04 0.22 0.06 0.04 0.04 0.04 0.08 0.09 0.01 0.01 0.06 0.02 0.02 0.00 0.01 0.02 0.01 0.03 0.02 0.05 0.08 0.29 0.33 0.37 0.57
0.00 0.00 0.00 0.00 0.00 0.00 0.00 0.00 0.00 0.01 0.04 0.08 0.27 0.45 0.13 0.03 0.00 0.00 0.00 0.00 0.08 0.04 0.07 0.03 0.02 0.19 0.51 0.24 0.21 0.07 0.08 0.07 0.05 0.02 0.03 0.06 0.05 0.02 0.06 0.14 0.18 0.21 0.25 0.58
0.00 0.00 0.00 0.00 0.00 0.00 0.00 0.00 0.00 0.01 0.00 0.05 0.19 0.70 0.30 0.01 0.00 0.00 0.00 0.00 0.00 0.03 0.08 0.06 0.06 0.12 0.37 0.71 0.74 0.47 0.14 0.07 0.09 0.03 0.02 0.02 0.00 0.00 0.01 0.04 0.11 0.19 0.37 1.39
0.00 0.00 0.00 0.00 0.00 0.00 0.00 0.00 0.00 0.00 0.00 0.00 0.06 0.15 0.06 0.02 0.00 0.00 0.00 0.01 0.00 0.00 0.06 0.13 0.09 0.17 0.15 0.58 0.42 0.84 0.19 0.06 0.05 0.06 0.27 0.38 0.11 0.04 0.02 0.02 0.02 0.04 0.16 0.39
0.00 0.00 0.00 0.00 0.00 0.00 0.00 0.00 0.00 0.00 0.00 0.00 0.00 0.08 0.16 0.15 0.02 0.01 0.02 0.04 0.05 0.05 0.08 0.12 0.09 0.35 0.22 0.19 0.21 0.22 0.23 0.35 0.38 0.44 0.59 0.43 0.53 0.41 0.20 0.15 0.10 0.05 0.04 0.05
0.00 0.00 0.00 0.00 0.00 0.00 0.00 0.00 0.00 0.00 0.00 0.00 0.00 0.02 0.01 0.06 0.03 0.00 0.01 0.06 0.06 0.15 0.17 0.18 0.28 0.55 0.38 0.14 0.12 0.15 0.18 0.26 0.36 0.47 0.65 0.59 0.36 0.32 0.36 0.36 0.56 0.27 0.09 0.07
0.00 0.00 0.00 0.00 0.00 0.00 0.00 0.00 0.00 0.00 0.00 0.00 0.00 0.00 0.01 0.00 0.01 0.13 0.24 0.24 0.18 0.19 0.32 0.31 0.29 0.38 0.37 0.31 0.12 0.13 0.11 0.11 0.18 0.28 0.33 0.29 0.26 0.23 0.28 0.22 0.28 0.15 0.11 0.17
0.00 0.00 0.00 0.00 0.00 0.00 0.00 0.00 0.00 0.00 0.00 0.00 0.00 0.01 0.02 0.04 0.06 0.11 0.28 0.31 0.33 0.28 0.16 0.22 0.50 0.62 0.36 0.59 0.62 0.33 0.14 0.17 0.10 0.15 0.13 0.05 0.07 0.07 0.11 0.19 0.21 0.24 0.12 0.12
0.00 0.00 0.00 0.00 0.00 0.00 0.00 0.00 0.00 0.00 0.00 0.00 0.00 0.02 0.24 0.39 0.64 0.23 0.05 0.03 0.09 0.12 0.16 0.20 0.40 0.39 0.63 0.43 0.76 0.47 0.24 0.26 0.20 0.26 0.20 0.07 0.08 0.11 0.16 0.18 0.17 0.19 0.19 0.13
0.00 0.02 0.00 0.01 0.01 0.00 0.03 0.01 0.00 0.00 0.00 0.01 0.01 0.00 0.04 0.21 0.41 0.28 0.03 0.01 0.00 0.01 0.08 0.16 0.22 0.23 0.41 0.52 0.49 0.35 0.21 0.33 0.22 0.16 0.10 0.09 0.10 0.06 0.08 0.10 0.18 0.22 0.28 0.19
0.00 0.07 0.02 0.17 0.05 0.08 0.06 0.04 0.03 0.03 0.04 0.02 0.01 0.02 0.06 0.14 0.05 0.01 0.01 0.01 0.02 0.02 0.06 0.06 0.07 0.12 0.24 0.27 0.37 0.41 0.48 0.25 0.16 0.11 0.04 0.03 0.02 0.00 0.00 0.00 0.00 0.02 0.09 0.15
0.00 0.02 0.10 0.12 0.12 0.13 0.07 0.06 0.04 0.03 0.07 0.10 0.15 0.11 0.05 0.15 0.16 0.11 0.06 0.08 0.02 0.03 0.04 0.08 0.08 0.14 0.19 0.23 0.42 0.31 0.41 0.45 0.19 0.11 0.06 0.02 0.01 0.00 0.03 0.02 0.01 0.01 0.03 0.04
0.00 0.01 0.12 0.10 0.27 0.20 0.13 0.03 0.02 0.02 0.14 0.10 0.15 0.25 0.21 0.18 0.14 0.11 0.14 0.14 0.02 0.00 0.00 0.01 0.02 0.04 0.06 0.09 0.19 0.16 0.24 0.26 0.18 0.17 0.18 0.11 0.10 0.08 0.03 0.03 0.02 0.00 0.01 0.05
0.01 0.01 0.03 0.08 0.16 0.12 0.08 0.05 0.02 0.03 0.04 0.08 0.07 0.37 0.61 1.14 0.81 0.46 0.32 0.22 0.04 0.00 0.00 0.00 0.00 0.00 0.01 0.04 0.03 0.12 0.12 0.11 0.10 0.09 0.15 0.10 0.06 0.05 0.02 0.01 0.00 0.00 0.00 0.00
0.06 0.06 0.12 0.02 0.27 0.11 0.00 0.00 0.02 0.02 0.00 0.01 0.03 0.39 0.16 0.26 0.60 0.38 0.20 0.12 0.01 0.00 0.00 0.00 0.00 0.00 0.00 0.01 0.01 0.02 0.05 0.05 0.07 0.05 0.05 0.06 0.04 0.02 0.00 0.00 0.00 0.00 0.00 0.00
0.01 0.02 0.15 0.06 0.15 0.05 0.01 0.02 0.01 0.00 0.00 0.00 0.01 0.13 0.38 0.16 0.13 0.10 0.06 0.00 0.00 0.00 0.00 0.00 0.00 0.00 0.00 0.00 0.00 0.00 0.00 0.00 0.01 0.01 0.01 0.01 0.01 0.00 0.00 0.00 0.00 0.00 0.00 0.00
0.00 0.00 0.00 0.00 0.00 0.00 0.00 0.02 0.02 0.02 0.00 0.00 0.00 0.01 0.05 0.05 0.10 0.04 0.01 0.00 0.00 0.00 0.00 0.00 0.00 0.00 0.00 0.00 0.00 0.00 0.00 0.00 0.00 0.00 0.00 0.00 0.00 0.00 0.00 0.01 0.01 0.01 0.00 0.00
0.00 0.00 0.00 0.00 0.00 0.00 0.00 0.00 0.00 0.00 0.00 0.00 0.00 0.00 0.05 0.07 0.06 0.01 0.00 0.00 0.00 0.00 0.00 0.00 0.00 0.00 0.00 0.00 0.00 0.00 0.00 0.00 0.00 0.00 0.00 0.00 0.00 0.00 0.00 0.00 0.00 0.00 0.00 0.00
0.00 0.00 0.00 0.00 0.00 0.00 0.00 0.00 0.00 0.00 0.00 0.00 0.00 0.00 0.00 0.02 0.04 0.03 0.00 0.00 0.00 0.00 0.00 0.00 0.00 0.00 0.00 0.00 0.00 0.00 0.00 0.00 0.00 0.00 0.00 0.00 0.00 0.00 0.00 0.00 0.00 0.00 0.00 0.00

GFSCGP_prec_precacc12_111.txt.gz
Total_Precipitation_Accumulation
0.00 0.00 0.00 0.00 0.00 0.03 0.32 0.42 0.63 1.11 1.98 2.01 1.49 0.75 0.49 0.10 0.03 0.01 0.00 0.00 0.00 0.00 0.00 0.00 0.00 0.00 0.00 0.00 0.00 0.00 0.00 0.00 0.00 0.01 0.02 0.03 0.02 0.00 0.02 0.06 0.06 0.04 0.04 0.05
0.00 0.00 0.00 0.00 0.00 0.01 0.11 0.23 0.60 1.11 1.47 1.21 1.25 0.83 0.72 0.50 0.12 0.02 0.01 0.01 0.00 0.00 0.00 0.00 0.00 0.00 0.00 0.00 0.00 0.00 0.03 0.02 0.00 0.02 0.03 0.06 0.03 0.03 0.03 0.07 0.07 0.04 0.03 0.03
0.00 0.00 0.00 0.00 0.00 0.06 0.12 0.09 0.35 1.32 1.35 1.18 0.72 1.06 0.64 0.51 0.42 0.10 0.02 0.01 0.02 0.00 0.00 0.00 0.00 0.00 0.00 0.00 0.00 0.00 0.02 0.06 0.03 0.08 0.04 0.08 0.08 0.11 0.13 0.11 0.08 0.03 0.02 0.02
0.00 0.00 0.00 0.00 0.00 0.02 0.15 0.14 0.11 0.76 1.29 1.06 0.98 0.89 0.91 0.44 0.33 0.22 0.04 0.01 0.01 0.01 0.00 0.00 0.00 0.00 0.00 0.00 0.00 0.00 0.01 0.09 0.06 0.06 0.06 0.05 0.06 0.10 0.09 0.18 0.30 0.17 0.02 0.02
0.00 0.00 0.00 0.00 0.00 0.01 0.04 0.04 0.06 0.50 0.89 0.80 0.67 0.62 0.52 0.47 0.16 0.21 0.08 0.03 0.02 0.01 0.00 0.01 0.00 0.00 0.00 0.00 0.00 0.00 0.00 0.03 0.03 0.04 0.16 0.10 0.04 0.06 0.12 0.13 0.28 0.13 0.05 0.01
0.00 0.00 0.00 0.00 0.00 0.00 0.01 0.04 0.04 0.25 0.88 0.49 0.23 0.33 0.31 0.28 0.12 0.09 0.08 0.17 0.03 0.02 0.02 0.03 0.00 0.00 0.00 0.00 0.00 0.00 0.00 0.00 0.01 0.01 0.04 0.11 0.09 0.12 0.18 0.31 0.18 0.14 0.13 0.03
0.00 0.00 0.00 0.00 0.02 0.04 0.00 0.02 0.11 0.18 0.44 0.42 0.11 0.15 0.28 0.03 0.05 0.08 0.05 0.13 0.08 0.02 0.01 0.02 0.02 0.02 0.00 0.00 0.00 0.00 0.00 0.00 0.00 0.00 0.00 0.01 0.08 0.10 0.13 0.10 0.10 0.12 0.19 0.34
0.00 0.00 0.00 0.00 0.00 0.01 0.00 0.00 0.01 0.05 0.11 0.21 0.18 0.35 0.14 0.01 0.00 0.03 0.03 0.05 0.23 0.06 0.04 0.04 0.04 0.05 0.07 0.01 0.01 0.06 0.02 0.01 0.00 0.00 0.00 0.00 0.02 0.02 0.05 0.08 0.29 0.32 0.31 0.57
0.00 0.00 0.00 0.00 0.00 0.00 0.01 0.00 0.00 0.01 0.04 0.07 0.27 0.45 0.13 0.03 0.00 0.00 0.01 0.00 0.10 0.05 0.08 0.03 0.03 0.18 0.50 0.23 0.21 0.05 0.08 0.06 0.03 0.00 0.00 0.00 0.00 0.01 0.02 0.07 0.22 0.26 0.24 0.42
0.00 0.00 0.00 0.00 0.00 0.00 0.00 0.00 0.00 0.01 0.00 0.05 0.18 0.70 0.30 0.01 0.00 0.00 0.00 0.00 0.00 0.03 0.08 0.06 0.06 0.12 0.37 0.69 0.70 0.46 0.14 0.07 0.08 0.01 0.01 0.01 0.00 0.00 0.01 0.04 0.13 0.24 0.39 1.07
0.00 0.00 0.00 0.00 0.00 0.00 0.00 0.00 0.00 0.00 0.00 0.00 0.06 0.15 0.06 0.02 0.00 0.00 0.00 0.01 0.00 0.00 0.07 0.13 0.09 0.17 0.15 0.58 0.39 0.82 0.17 0.06 0.03 0.03 0.21 0.27 0.11 0.04 0.02 0.02 0.02 0.04 0.15 0.31
0.00 0.00 0.00 0.00 0.00 0.00 0.00 0.00 0.00 0.00 0.00 0.00 0.00 0.06 0.16 0.15 0.02 0.01 0.02 0.04 0.05 0.02 0.05 0.12 0.09 0.35 0.21 0.16 0.21 0.23 0.20 0.26 0.39 0.48 0.66 0.49 0.63 0.47 0.19 0.14 0.10 0.05 0.04 0.04
0.00 0.00 0.00 0.00 0.00 0.00 0.00 0.00 0.00 0.00 0.00 0.00 0.00 0.01 0.01 0.06 0.03 0.00 0.01 0.06 0.05 0.10 0.14 0.18 0.28 0.54 0.38 0.18 0.20 0.20 0.22 0.33 0.45 0.51 0.68 0.71 0.53 0.48 0.54 0.43 0.59 0.28 0.07 0.05
0.00 0.00 0.00 0.00 0.00 0.00 0.00 0.00 0.00 0.00 0.00 0.00 0.00 0.00 0.01 0.00 0.01 0.13 0.24 0.24 0.18 0.19 0.31 0.29 0.24 0.39 0.44 0.41 0.21 0.16 0.16 0.15 0.24 0.32 0.31 0.39 0.48 0.37 0.32 0.34 0.36 0.26 0.22 0.29
0.00 0.00 0.00 0.00 0.00 0.00 0.00 0.00 0.00 0.00 0.00 0.00 0.00 0.01 0.02 0.04 0.06 0.11 0.28 0.31 0.33 0.29 0.16 0.20 0.45 0.57 0.34 0.62 0.65 0.32 0.13 0.18 0.14 0.21 0.16 0.13 0.17 0.22 0.14 0.24 0.29 0.28 0.19 0.16
0.00 0.00 0.00 0.00 0.00 0.00 0.00 0.00 0.00 0.00 0.00 0.00 0.00 0.01 0.23 0.39 0.64 0.23 0.05 0.03 0.10 0.15 0.16 0.19 0.37 0.35 0.62 0.43 0.75 0.43 0.18 0.27 0.22 0.31 0.33 0.23 0.24 0.12 0.08 0.12 0.10 0.16 0.17 0.11
0.00 0.00 0.00 0.01 0.01 0.01 0.03 0.01 0.00 0.00 0.00 0.01 0.01 0.00 0.04 0.23 0.44 0.31 0.05 0.07 0.08 0.09 0.12 0.18 0.21 0.23 0.41 0.60 0.54 0.39 0.21 0.29 0.26 0.23 0.23 0.21 0.27 0.12 0.08 0.08 0.11 0.18 0.22 0.16
0.00 0.03 0.01 0.15 0.04 0.08 0.07 0.05 0.03 0.03 0.04 0.02 0.01 0.07 0.14 0.18 0.07 0.03 0.04 0.08 0.16 0.16 0.19 0.16 0.12 0.15 0.28 0.43 0.37 0.46 0.71 0.52 0.30 0.38 0.31 0.12 0.09 0.02 0.00 0.00 0.00 0.01 0.09 0.15
0.00 0.01 0.09 0.11 0.07 0.11 0.07 0.06 0.04 0.03 0.07 0.10 0.16 0.14 0.10 0.16 0.16 0.13 0.11 0.15 0.11 0.12 0.13 0.17 0.21 0.22 0.29 0.47 0.48 0.35 0.53 1.20 1.21 0.41 0.20 0.11 0.03 0.01 0.03 0.02 0.01 0.02 0.02 0.04
0.00 0.01 0.11 0.10 0.24 0.17 0.11 0.03 0.02 0.02 0.15 0.11 0.16 0.25 0.24 0.27 0.23 0.15 0.16 0.16 0.02 0.00 0.01 0.06 0.08 0.14 0.14 0.25 0.37 0.37 0.43 0.52 0.84 0.91 0.34 0.14 0.12 0.11 0.05 0.09 0.09 0.05 0.01 0.04
0.01 0.01 0.03 0.08 0.16 0.10 0.07 0.05 0.02 0.04 0.04 0.08 0.07 0.38 0.64 1.20 0.92 0.50 0.34 0.23 0.04 0.00 0.00 0.00 0.01 0.04 0.07 0.17 0.13 0.20 0.30 0.40 0.41 0.51 0.50 0.30 0.20 0.15 0.07 0.10 0.09 0.08 0.03 0.00
0.06 0.06 0.12 0.02 0.26 0.10 0.00 0.00 0.02 0.02 0.00 0.01 0.03 0.39 0.16 0.30 0.65 0.41 0.22 0.12 0.01 0.00 0.00 0.00 0.00 0.00 0.01 0.04 0.09 0.07 0.16 0.20 0.30 0.35 0.39 0.32 0.20 0.11 0.02 0.02 0.02 0.01 0.01 0.00
0.01 0.02 0.16 0.07 0.15 0.06 0.02 0.02 0.01 0.00 0.00 0.00 0.01 0.13 0.38 0.16 0.13 0.13 0.13 0.03 0.00 0.00 0.00 0.00 0.00 0.00 0.00 0.00 0.01 0.01 0.02 0.04 0.08 0.10 0.07 0.05 0.02 0.01 0.01 0.01 0.00 0.00 0.00 0.00
0.00 0.00 0.00 0.00 0.00 0.04 0.06 0.07 0.04 0.03 0.00 0.00 0.00 0.01 0.05 0.05 0.10 0.04 0.01 0.00 0.00 0.00 0.00 0.00 0.00 0.00 0.00 0.00 0.00 0.00 0.00 0.00 0.00 0.00 0.00 0.00 0.01 0.00 0.00 0.01 0.01 0.01 0.00 0.00
0.00 0.00 0.00 0.00 0.00 0.01 0.01 0.00 0.00 0.00 0.00 0.00 0.00 0.00 0.05 0.07 0.06 0.01 0.00 0.00 0.00 0.00 0.00 0.00 0.00 0.00 0.00 0.00 0.00 0.00 0.00 0.00 0.00 0.00 0.00 0.00 0.00 0.00 0.00 0.00 0.00 0.00 0.00 0.00
0.00 0.00 0.00 0.00 0.00 0.00 0.00 0.00 0.00 0.00 0.00 0.00 0.00 0.00 0.00 0.03 0.04 0.03 0.00 0.00 0.00 0.00 0.00 0.00 0.00 0.00 0.00 0.00 0.00 0.00 0.00 0.00 0.00 0.00 0.00 0.00 0.00 0.00 0.00 0.00 0.00 0.00 0.00 0.00

GFSCGP_prec_precacc12_114.txt.gz
Total_Precipitation_Accumulation
0.00 0.00 0.00 0.00 0.00 0.00 0.01 0.17 0.31 0.69 1.78 2.16 1.73 0.97 0.55 0.10 0.05 0.03 0.00 0.00 0.00 0.00 0.00 0.00 0.00 0.00 0.00 0.00 0.00 0.00 0.00 0.00 0.00 0.01 0.01 0.02 0.02 0.01 0.02 0.07 0.08 0.10 0.07 0.06
0.00 0.00 0.00 0.00 0.00 0.01 0.08 0.14 0.20 0.24 0.95 1.00 1.40 1.04 0.88 0.30 0.10 0.01 0.00 0.00 0.00 0.00 0.00 0.00 0.00 0.00 0.00 0.00 0.00 0.00 0.00 0.00 0.00 0.01 0.01 0.01 0.02 0.02 0.03 0.09 0.09 0.06 0.10 0.07
0.00 0.00 0.00 0.00 0.00 0.06 0.12 0.09 0.05 0.11 0.27 0.68 0.69 1.06 0.83 0.40 0.20 0.02 0.00 0.01 0.00 0.00 0.00 0.00 0.00 0.00 0.00 0.00 0.00 0.00 0.00 0.02 0.01 0.01 0.00 0.00 0.00 0.03 0.06 0.07 0.08 0.05 0.06 0.09
0.00 0.00 0.00 0.00 0.00 0.02 0.14 0.08 0.06 0.03 0.15 0.67 0.94 0.83 0.94 0.61 0.29 0.07 0.01 0.00 0.00 0.00 0.00 0.00 0.00 0.00 0.00 0.00 0.00 0.00 0.00 0.02 0.03 0.00 0.01 0.01 0.01 0.03 0.04 0.09 0.07 0.02 0.02 0.05
0.00 0.00 0.00 0.00 0.00 0.00 0.04 0.06 0.05 0.00 0.11 0.38 0.61 0.60 0.55 0.77 0.36 0.06 0.01 0.00 0.01 0.01 0.00 0.00 0.00 0.00 0.00 0.00 0.00 0.00 0.00 0.01 0.01 0.01 0.02 0.04 0.03 0.03 0.06 0.03 0.03 0.00 0.01 0.01
0.00 0.00 0.00 0.00 0.00 0.00 0.01 0.05 0.05 0.01 0.08 0.24 0.21 0.32 0.29 0.39 0.25 0.05 0.03 0.01 0.00 0.00 0.01 0.01 0.00 0.00 0.00 0.00 0.00 0.00 0.00 0.00 0.00 0.00 0.02 0.02 0.03 0.05 0.10 0.06 0.02 0.02 0.04 0.02
0.00 0.00 0.00 0.00 0.02 0.04 0.00 0.02 0.11 0.08 0.15 0.25 0.05 0.14 0.27 0.03 0.09 0.07 0.04 0.03 0.02 0.00 0.01 0.02 0.01 0.01 0.00 0.00 0.00 0.00 0.00 0.00 0.00 0.00 0.00 0.01 0.04 0.04 0.05 0.01 0.05 0.03 0.04 0.11
0.00 0.00 0.00 0.00 0.00 0.01 0.01 0.01 0.02 0.03 0.07 0.10 0.12 0.32 0.13 0.01 0.00 0.03 0.02 0.03 0.04 0.02 0.01 0.01 0.01 0.02 0.06 0.00 0.00 0.00 0.00 0.00 0.00 0.00 0.00 0.00 0.02 0.01 0.02 0.03 0.20 0.11 0.12 0.28
0.00 0.00 0.00 0.00 0.00 0.00 0.02 0.01 0.02 0.02 0.03 0.05 0.20 0.38 0.13 0.03 0.00 0.00 0.02 0.02 0.02 0.02 0.03 0.00 0.01 0.12 0.23 0.14 0.07 0.03 0.01 0.01 0.00 0.00 0.00 0.00 0.00 0.01 0.00 0.04 0.21 0.26 0.24 0.18
0.00 0.00 0.00 0.00 0.00 0.00 0.00 0.03 0.02 0.02 0.03 0.04 0.16 0.65 0.29 0.01 0.00 0.00 0.01 0.02 0.00 0.02 0.02 0.01 0.01 0.06 0.27 0.58 0.27 0.28 0.10 0.04 0.01 0.00 0.00 0.01 0.01 0.01 0.07 0.04 0.12 0.23 0.22 0.06
0.00 0.00 0.00 0.00 0.00 0.00 0.00 0.01 0.02 0.01 0.01 0.01 0.04 0.10 0.05 0.02 0.00 0.00 0.00 0.01 0.00 0.00 0.03 0.05 0.02 0.10 0.16 0.57 0.36 0.79 0.16 0.05 0.02 0.02 0.12 0.15 0.05 0.03 0.03 0.03 0.10 0.08 0.08 0.03
0.00 0.00 0.00 0.00 0.00 0.00 0.00 0.00 0.00 0.00 0.00 0.00 0.00 0.03 0.05 0.03 0.01 0.01 0.02 0.04 0.05 0.02 0.04 0.05 0.03 0.21 0.21 0.14 0.19 0.23 0.20 0.26 0.39 0.48 0.65 0.44 0.33 0.34 0.16 0.08 0.07 0.07 0.04 0.00
0.00 0.00 0.00 0.00 0.00 0.00 0.00 0.00 0.00 0.00 0.00 0.00 0.00 0.01 0.01 0.00 0.02 0.00 0.01 0.06 0.05 0.04 0.12 0.16 0.22 0.42 0.27 0.15 0.20 0.20 0.22 0.33 0.48 0.53 0.69 0.68 0.44 0.43 0.49 0.31 0.26 0.17 0.06 0.03
0.00 0.00 0.00 0.00 0.01 0.00 0.00 0.00 0.00 0.00 0.00 0.00 0.00 0.00 0.01 0.00 0.01 0.13 0.24 0.24 0.17 0.17 0.23 0.26 0.21 0.33 0.36 0.39 0.24 0.19 0.23 0.21 0.27 0.37 0.32 0.43 0.47 0.36 0.36 0.35 0.38 0.29 0.27 0.32
0.00 0.00 0.00 0.00 0.01 0.01 0.00 0.00 0.00 0.00 0.00 0.00 0.00 0.01 0.02 0.03 0.06 0.11 0.28 0.31 0.33 0.29 0.14 0.18 0.38 0.38 0.30 0.65 0.71 0.43 0.30 0.33 0.23 0.28 0.24 0.21 0.21 0.27 0.19 0.28 0.33 0.30 0.24 0.27
0.00 0.00 0.00 0.01 0.00 0.00 0.00 0.00 0.00 0.00 0.00 0.00 0.00 0.01 0.07 0.12 0.37 0.21 0.05 0.03 0.10 0.15 0.16 0.18 0.36 0.33 0.59 0.44 0.85 0.56 0.23 0.28 0.24 0.36 0.40 0.26 0.27 0.25 0.17 0.18 0.16 0.15 0.12 0.12
0.00 0.01 0.00 0.01 0.01 0.01 0.04 0.01 0.00 0.00 0.00 0.01 0.01 0.00 0.02 0.08 0.24 0.34 0.12 0.13 0.13 0.11 0.13 0.19 0.21 0.23 0.42 0.56 0.61 0.45 0.25 0.31 0.25 0.27 0.26 0.24 0.34 0.23 0.20 0.10 0.09 0.14 0.11 0.11
0.00 0.00 0.01 0.01 0.02 0.07 0.07 0.05 0.03 0.03 0.04 0.02 0.01 0.07 0.14 0.11 0.09 0.05 0.05 0.11 0.25 0.27 0.29 0.23 0.12 0.13 0.26 0.42 0.36 0.48 0.77 0.58 0.31 0.38 0.38 0.23 0.21 0.14 0.07 0.03 0.02 0.01 0.01 0.05
0.00 0.00 0.00 0.01 0.01 0.07 0.07 0.06 0.04 0.02 0.06 0.10 0.16 0.15 0.11 0.08 0.20 0.17 0.13 0.16 0.12 0.12 0.15 0.27 0.26 0.24 0.31 0.58 0.55 0.40 0.51 1.14 1.20 0.43 0.31 0.18 0.10 0.09 0.16 0.14 0.10 0.06 0.01 0.01
0.00 0.01 0.01 0.06 0.14 0.05 0.05 0.02 0.02 0.02 0.05 0.07 0.16 0.28 0.33 0.39 0.31 0.17 0.18 0.17 0.02 0.00 0.01 0.07 0.09 0.18 0.22 0.43 0.46 0.44 0.44 0.53 0.91 0.94 0.50 0.27 0.27 0.31 0.31 0.42 0.39 0.21 0.02 0.01
0.01 0.01 0.00 0.00 0.05 0.03 0.01 0.03 0.02 0.03 0.03 0.08 0.07 0.40 0.70 1.26 0.97 0.51 0.36 0.24 0.04 0.00 0.00 0.00 0.02 0.05 0.13 0.27 0.23 0.34 0.37 0.53 0.67 0.86 1.03 0.69 0.45 0.41 0.31 0.28 0.38 0.35 0.09 0.01
0.06 0.06 0.12 0.02 0.20 0.05 0.00 0.00 0.02 0.01 0.00 0.02 0.05 0.43 0.21 0.32 0.65 0.41 0.22 0.12 0.01 0.00 0.00 0.00 0.00 0.03 0.06 0.11 0.16 0.13 0.19 0.27 0.47 0.84 0.86 1.34 1.05 0.71 0.25 0.11 0.09 0.12 0.07 0.04
0.01 0.02 0.16 0.07 0.11 0.04 0.02 0.02 0.02 0.02 0.00 0.00 0.01 0.13 0.39 0.16 0.13 0.13 0.13 0.03 0.00 0.00 0.00 0.00 0.00 0.00 0.00 0.02 0.03 0.05 0.06 0.11 0.15 0.27 0.46 0.62 0.93 0.45 0.14 0.03 0.01 0.00 0.00 0.00
0.00 0.00 0.00 0.00 0.01 0.05 0.07 0.07 0.05 0.03 0.00 0.00 0.00 0.01 0.05 0.05 0.10 0.04 0.01 0.00 0.00 0.00 0.00 0.00 0.00 0.00 0.00 0.00 0.00 0.00 0.00 0.00 0.00 0.00 0.01 0.05 0.09 0.07 0.05 0.03 0.01 0.03 0.01 0.00
0.00 0.00 0.00 0.00 0.00 0.03 0.04 0.03 0.00 0.00 0.00 0.00 0.00 0.00 0.05 0.08 0.07 0.01 0.00 0.00 0.00 0.00 0.00 0.00 0.00 0.00 0.00 0.00 0.00 0.00 0.00 0.00 0.00 0.00 0.00 0.00 0.00 0.00 0.00 0.00 0.00 0.00 0.00 0.00
0.00 0.00 0.00 0.00 0.00 0.00 0.00 0.00 0.00 0.00 0.00 0.00 0.00 0.00 0.03 0.07 0.05 0.03 0.00 0.00 0.00 0.00 0.00 0.00 0.00 0.00 0.00 0.00 0.00 0.00 0.00 0.00 0.00 0.00 0.00 0.00 0.00 0.00 0.00 0.00 0.00 0.00 0.00 0.00

GFSCGP_prec_precacc12_117.txt.gz
Total_Precipitation_Accumulation
0.00 0.00 0.00 0.00 0.00 0.00 0.00 0.07 0.16 0.26 0.60 1.35 1.56 0.98 0.71 0.14 0.07 0.04 0.01 0.00 0.00 0.00 0.00 0.00 0.00 0.00 0.00 0.00 0.00 0.00 0.00 0.00 0.00 0.00 0.01 0.02 0.02 0.00 0.02 0.07 0.08 0.10 0.07 0.06
0.00 0.00 0.00 0.00 0.00 0.01 0.05 0.08 0.07 0.04 0.23 0.40 1.12 1.01 0.96 0.42 0.11 0.01 0.00 0.01 0.00 0.00 0.00 0.00 0.00 0.00 0.00 0.00 0.00 0.00 0.00 0.00 0.00 0.00 0.00 0.00 0.00 0.01 0.02 0.08 0.09 0.06 0.10 0.07
0.00 0.00 0.00 0.00 0.00 0.04 0.10 0.05 0.03 0.01 0.02 0.02 0.22 0.94 0.85 0.48 0.21 0.02 0.00 0.01 0.00 0.00 0.00 0.00 0.00 0.00 0.00 0.00 0.00 0.00 0.00 0.00 0.00 0.00 0.00 0.00 0.00 0.05 0.01 0.03 0.03 0.07 0.06 0.09
0.00 0.00 0.00 0.00 0.00 0.01 0.07 0.03 0.02 0.01 0.00 0.01 0.12 0.52 0.84 0.58 0.28 0.06 0.02 0.00 0.00 0.00 0.00 0.00 0.00 0.00 0.00 0.00 0.00 0.00 0.00 0.00 0.00 0.00 0.00 0.03 0.02 0.01 0.05 0.12 0.07 0.00 0.02 0.05
0.00 0.00 0.00 0.00 0.00 0.00 0.01 0.04 0.06 0.01 0.00 0.01 0.10 0.25 0.44 0.74 0.36 0.06 0.01 0.00 0.00 0.00 0.00 0.00 0.00 0.00 0.00 0.00 0.00 0.00 0.00 0.00 0.00 0.00 0.01 0.03 0.03 0.01 0.02 0.04 0.05 0.00 0.00 0.01
0.00 0.00 0.00 0.00 0.00 0.00 0.00 0.02 0.05 0.04 0.01 0.02 0.07 0.17 0.22 0.38 0.25 0.05 0.03 0.01 0.00 0.00 0.00 0.00 0.00 0.00 0.00 0.00 0.00 0.00 0.00 0.00 0.00 0.00 0.00 0.00 0.04 0.03 0.07 0.08 0.02 0.02 0.01 0.00
0.00 0.00 0.00 0.00 0.02 0.04 0.00 0.01 0.05 0.06 0.03 0.01 0.01 0.03 0.12 0.03 0.09 0.08 0.04 0.02 0.01 0.00 0.01 0.00 0.00 0.00 0.00 0.00 0.00 0.00 0.00 0.00 0.00 0.00 0.00 0.00 0.02 0.01 0.04 0.06 0.05 0.03 0.03 0.02
0.00 0.00 0.00 0.00 0.00 0.00 0.01 0.01 0.01 0.01 0.02 0.05 0.06 0.04 0.05 0.00 0.00 0.03 0.02 0.02 0.02 0.01 0.01 0.01 0.00 0.00 0.00 0.00 0.00 0.00 0.00 0.00 0.00 0.00 0.00 0.00 0.01 0.00 0.00 0.03 0.05 0.01 0.00 0.01
0.00 0.00 0.00 0.00 0.00 0.00 0.02 0.01 0.02 0.03 0.03 0.03 0.05 0.05 0.03 0.00 0.00 0.00 0.02 0.02 0.01 0.01 0.02 0.00 0.00 0.00 0.00 0.00 0.01 0.00 0.00 0.00 0.00 0.00 0.00 0.00 0.00 0.01 0.00 0.00 0.07 0.10 0.12 0.03
0.00 0.00 0.00 0.00 0.00 0.00 0.00 0.04 0.06 0.05 0.07 0.02 0.01 0.13 0.08 0.00 0.00 0.00 0.01 0.02 0.00 0.02 0.01 0.00 0.00 0.00 0.00 0.20 0.08 0.08 0.02 0.00 0.00 0.00 0.00 0.00 0.00 0.02 0.10 0.01 0.04 0.17 0.15 0.04
0.00 0.00 0.00 0.00 0.00 0.00 0.00 0.02 0.05 0.03 0.02 0.02 0.01 0.04 0.01 0.00 0.00 0.00 0.00 0.00 0.00 0.00 0.03 0.01 0.01 0.04 0.04 0.39 0.22 0.16 0.09 0.02 0.00 0.00 0.01 0.00 0.00 0.00 0.04 0.05 0.10 0.10 0.04 0.00
0.00 0.00 0.00 0.00 0.00 0.00 0.00 0.00 0.00 0.00 0.00 0.00 0.00 0.00 0.00 0.00 0.00 0.00 0.00 0.00 0.00 0.01 0.02 0.01 0.02 0.02 0.02 0.09 0.12 0.11 0.14 0.18 0.27 0.34 0.46 0.34 0.22 0.17 0.08 0.03 0.04 0.04 0.03 0.00
0.00 0.00 0.00 0.00 0.00 0.00 0.00 0.00 0.00 0.00 0.00 0.00 0.00 0.00 0.00 0.00 0.00 0.00 0.00 0.04 0.01 0.00 0.02 0.02 0.01 0.02 0.05 0.07 0.10 0.11 0.10 0.19 0.35 0.43 0.57 0.55 0.32 0.29 0.34 0.26 0.20 0.14 0.04 0.02
0.00 0.00 0.00 0.00 0.01 0.00 0.00 0.00 0.00 0.00 0.00 0.00 0.00 0.00 0.00 0.00 0.00 0.05 0.09 0.07 0.03 0.06 0.08 0.10 0.03 0.03 0.10 0.15 0.14 0.10 0.15 0.17 0.24 0.36 0.31 0.42 0.40 0.26 0.26 0.33 0.35 0.27 0.24 0.31
0.00 0.00 0.00 0.00 0.01 0.01 0.02 0.00 0.00 0.00 0.00 0.00 0.00 0.00 0.00 0.00 0.00 0.01 0.08 0.12 0.10 0.12 0.06 0.09 0.09 0.04 0.06 0.25 0.39 0.24 0.26 0.34 0.28 0.33 0.27 0.25 0.26 0.27 0.19 0.28 0.33 0.28 0.23 0.24
0.00 0.00 0.00 0.01 0.01 0.00 0.01 0.01 0.00 0.02 0.01 0.00 0.00 0.00 0.01 0.02 0.01 0.02 0.00 0.01 0.03 0.05 0.05 0.08 0.12 0.13 0.31 0.38 0.81 0.62 0.37 0.46 0.31 0.39 0.52 0.44 0.34 0.27 0.15 0.16 0.17 0.16 0.12 0.10
0.00 0.01 0.01 0.01 0.01 0.01 0.04 0.01 0.00 0.00 0.01 0.01 0.01 0.00 0.04 0.09 0.11 0.10 0.09 0.12 0.13 0.11 0.08 0.12 0.14 0.15 0.41 0.48 0.68 0.62 0.38 0.33 0.29 0.31 0.34 0.32 0.37 0.23 0.19 0.11 0.11 0.17 0.15 0.15
0.00 0.00 0.02 0.01 0.02 0.05 0.05 0.04 0.02 0.01 0.02 0.01 0.00 0.09 0.21 0.14 0.12 0.07 0.05 0.10 0.25 0.27 0.30 0.27 0.17 0.18 0.30 0.39 0.35 0.52 0.83 0.62 0.37 0.47 0.50 0.31 0.32 0.28 0.18 0.10 0.04 0.04 0.06 0.09
0.00 0.00 0.01 0.03 0.03 0.03 0.05 0.04 0.03 0.02 0.03 0.04 0.05 0.12 0.15 0.18 0.23 0.19 0.17 0.18 0.13 0.12 0.16 0.29 0.35 0.28 0.33 0.59 0.53 0.39 0.50 1.10 1.24 0.55 0.47 0.31 0.19 0.16 0.23 0.20 0.21 0.19 0.09 0.05
0.00 0.01 0.00 0.00 0.01 0.01 0.02 0.01 0.01 0.01 0.04 0.05 0.03 0.23 0.31 0.33 0.26 0.12 0.21 0.20 0.06 0.01 0.04 0.09 0.10 0.20 0.23 0.49 0.58 0.54 0.47 0.50 0.94 1.02 0.64 0.59 0.57 0.40 0.36 0.50 0.51 0.44 0.31 0.17
0.00 0.00 0.00 0.00 0.00 0.00 0.00 0.01 0.01 0.02 0.01 0.01 0.02 0.21 0.38 0.50 0.65 0.34 0.33 0.24 0.04 0.00 0.00 0.01 0.02 0.06 0.14 0.34 0.30 0.39 0.43 0.54 0.73 0.96 1.08 0.74 0.70 0.62 0.50 0.54 0.69 0.73 0.62 0.43
0.05 0.02 0.10 0.00 0.00 0.00 0.00 0.00 0.01 0.01 0.00 0.01 0.05 0.20 0.27 0.25 0.54 0.45 0.16 0.11 0.01 0.00 0.00 0.00 0.00 0.03 0.06 0.13 0.18 0.16 0.27 0.30 0.53 1.04 1.14 1.52 1.15 1.13 0.97 0.98 0.92 0.58 0.57 0.36
0.02 0.02 0.15 0.04 0.01 0.01 0.01 0.01 0.01 0.03 0.00 0.00 0.03 0.13 0.43 0.16 0.14 0.16 0.12 0.03 0.00 0.00 0.00 0.00 0.00 0.00 0.00 0.06 0.09 0.09 0.08 0.14 0.21 0.34 0.51 0.72 1.21 0.93 0.89 0.72 0.56 0.41 0.26 0.09
0.00 0.00 0.00 0.00 0.00 0.05 0.07 0.08 0.06 0.04 0.00 0.00 0.01 0.02 0.06 0.05 0.07 0.03 0.01 0.00 0.00 0.00 0.00 0.00 0.00 0.00 0.00 0.00 0.00 0.02 0.02 0.02 0.02 0.04 0.03 0.08 0.18 0.17 0.21 0.19 0.16 0.18 0.20 0.12
0.00 0.00 0.00 0.00 0.00 0.03 0.06 0.08 0.01 0.00 0.00 0.00 0.00 0.00 0.05 0.08 0.06 0.01 0.00 0.00 0.00 0.00 0.00 0.00 0.00 0.00 0.00 0.00 0.00 0.00 0.00 0.00 0.00 0.00 0.00 0.00 0.00 0.02 0.05 0.06 0.06 0.04 0.06 0.05
0.00 0.00 0.00 0.00 0.00 0.00 0.00 0.00 0.00 0.00 0.00 0.00 0.00 0.00 0.03 0.08 0.05 0.03 0.00 0.00 0.00 0.00 0.00 0.00 0.00 0.00 0.00 0.00 0.00 0.00 0.00 0.00 0.00 0.00 0.00 0.00 0.00 0.00 0.00 0.00 0.00 0.00 0.00 0.00

GFSCGP_prec_precacc12_120.txt.gz
Total_Precipitation_Accumulation
0.00 0.00 0.00 0.00 0.00 0.00 0.00 0.00 0.05 0.10 0.31 0.81 0.90 0.86 0.66 0.16 0.10 0.04 0.01 0.00 0.00 0.00 0.00 0.00 0.00 0.00 0.00 0.00 0.00 0.00 0.00 0.02 0.00 0.00 0.00 0.01 0.05 0.01 0.01 0.04 0.08 0.09 0.07 0.04
0.00 0.00 0.00 0.00 0.00 0.00 0.00 0.01 0.03 0.03 0.11 0.13 0.52 0.73 0.87 0.40 0.10 0.02 0.01 0.02 0.00 0.00 0.00 0.00 0.00 0.00 0.00 0.00 0.00 0.00 0.00 0.04 0.03 0.00 0.02 0.01 0.00 0.01 0.02 0.04 0.06 0.05 0.10 0.06
0.00 0.00 0.00 0.00 0.00 0.01 0.06 0.02 0.01 0.02 0.01 0.00 0.06 0.45 0.75 0.46 0.21 0.02 0.01 0.02 0.00 0.00 0.00 0.00 0.00 0.00 0.00 0.00 0.00 0.00 0.00 0.03 0.08 0.02 0.01 0.04 0.07 0.13 0.05 0.02 0.03 0.06 0.04 0.07
0.00 0.00 0.00 0.00 0.00 0.01 0.05 0.01 0.00 0.03 0.04 0.02 0.01 0.17 0.47 0.53 0.27 0.06 0.01 0.00 0.00 0.00 0.00 0.00 0.00 0.00 0.00 0.00 0.00 0.00 0.00 0.03 0.04 0.00 0.03 0.15 0.08 0.03 0.10 0.14 0.13 0.07 0.03 0.03
0.00 0.00 0.00 0.00 0.00 0.00 0.00 0.04 0.07 0.04 0.03 0.02 0.01 0.01 0.15 0.52 0.34 0.06 0.01 0.00 0.00 0.00 0.00 0.00 0.00 0.00 0.00 0.00 0.00 0.00 0.00 0.07 0.03 0.01 0.11 0.06 0.04 0.04 0.04 0.07 0.06 0.06 0.06 0.01
0.00 0.00 0.00 0.00 0.00 0.00 0.00 0.02 0.05 0.06 0.06 0.02 0.00 0.00 0.01 0.19 0.22 0.05 0.02 0.00 0.00 0.00 0.00 0.00 0.00 0.00 0.00 0.00 0.00 0.00 0.00 0.00 0.00 0.03 0.07 0.07 0.06 0.07 0.08 0.12 0.05 0.06 0.02 0.00
0.00 0.00 0.00 0.00 0.00 0.01 0.00 0.01 0.04 0.05 0.03 0.00 0.00 0.01 0.00 0.01 0.09 0.07 0.04 0.02 0.00 0.00 0.01 0.00 0.00 0.00 0.00 0.00 0.00 0.00 0.00 0.00 0.00 0.04 0.05 0.06 0.04 0.04 0.09 0.11 0.11 0.12 0.08 0.04
0.00 0.00 0.00 0.00 0.00 0.00 0.01 0.01 0.01 0.00 0.01 0.03 0.02 0.01 0.00 0.00 0.00 0.03 0.02 0.02 0.01 0.01 0.01 0.01 0.00 0.00 0.00 0.00 0.00 0.00 0.00 0.00 0.00 0.00 0.00 0.02 0.05 0.06 0.05 0.08 0.16 0.12 0.09 0.07
0.00 0.00 0.00 0.00 0.00 0.00 0.02 0.01 0.02 0.03 0.03 0.04 0.01 0.00 0.00 0.00 0.00 0.00 0.02 0.02 0.01 0.01 0.02 0.00 0.00 0.00 0.00 0.00 0.00 0.00 0.00 0.00 0.00 0.00 0.00 0.00 0.01 0.04 0.01 0.01 0.17 0.15 0.20 0.09
0.00 0.00 0.00 0.00 0.00 0.00 0.00 0.04 0.07 0.05 0.07 0.02 0.00 0.00 0.00 0.00 0.00 0.00 0.01 0.02 0.00 0.01 0.00 0.00 0.00 0.00 0.00 0.00 0.00 0.00 0.00 0.00 0.00 0.00 0.00 0.00 0.00 0.02 0.09 0.01 0.09 0.18 0.16 0.08
0.00 0.00 0.00 0.00 0.00 0.00 0.00 0.02 0.05 0.04 0.02 0.02 0.01 0.00 0.00 0.00 0.00 0.00 0.00 0.00 0.00 0.00 0.01 0.01 0.01 0.01 0.02 0.01 0.00 0.00 0.00 0.00 0.00 0.00 0.00 0.00 0.00 0.00 0.04 0.05 0.13 0.19 0.10 0.01
0.00 0.00 0.00 0.00 0.00 0.00 0.00 0.00 0.00 0.02 0.00 0.00 0.00 0.01 0.00 0.00 0.00 0.00 0.00 0.00 0.00 0.01 0.01 0.01 0.03 0.02 0.02 0.00 0.02 0.02 0.02 0.01 0.06 0.09 0.14 0.16 0.12 0.08 0.02 0.05 0.06 0.10 0.09 0.09
0.00 0.00 0.00 0.00 0.00 0.00 0.00 0.00 0.00 0.00 0.01 0.04 0.00 0.00 0.00 0.00 0.00 0.00 0.00 0.00 0.00 0.00 0.01 0.04 0.01 0.02 0.04 0.05 0.08 0.05 0.04 0.10 0.21 0.16 0.20 0.27 0.21 0.20 0.25 0.18 0.09 0.07 0.04 0.02
0.00 0.00 0.00 0.00 0.01 0.00 0.00 0.00 0.00 0.00 0.00 0.00 0.00 0.00 0.00 0.00 0.00 0.00 0.00 0.00 0.00 0.00 0.01 0.05 0.03 0.03 0.10 0.13 0.13 0.06 0.12 0.11 0.11 0.12 0.09 0.25 0.28 0.18 0.15 0.22 0.17 0.18 0.22 0.22
0.00 0.00 0.00 0.00 0.01 0.01 0.02 0.00 0.00 0.00 0.00 0.00 0.00 0.00 0.00 0.00 0.00 0.00 0.00 0.00 0.00 0.02 0.00 0.05 0.05 0.02 0.06 0.13 0.12 0.14 0.18 0.20 0.19 0.20 0.18 0.24 0.29 0.31 0.22 0.21 0.26 0.19 0.20 0.22
0.00 0.00 0.00 0.01 0.01 0.00 0.01 0.01 0.00 0.02 0.01 0.00 0.00 0.00 0.01 0.02 0.00 0.00 0.00 0.00 0.01 0.03 0.01 0.06 0.18 0.17 0.11 0.16 0.19 0.27 0.22 0.23 0.15 0.19 0.43 0.56 0.50 0.40 0.26 0.21 0.24 0.19 0.13 0.10
0.00 0.01 0.01 0.01 0.01 0.01 0.02 0.00 0.00 0.00 0.01 0.01 0.01 0.00 0.04 0.10 0.12 0.09 0.09 0.12 0.13 0.10 0.06 0.06 0.10 0.12 0.24 0.30 0.33 0.36 0.27 0.14 0.18 0.30 0.37 0.38 0.47 0.32 0.29 0.20 0.20 0.25 0.20 0.16
0.00 0.00 0.02 0.02 0.05 0.07 0.02 0.01 0.00 0.00 0.00 0.00 0.00 0.08 0.17 0.13 0.12 0.07 0.06 0.12 0.27 0.26 0.26 0.23 0.14 0.17 0.33 0.42 0.33 0.29 0.52 0.49 0.31 0.45 0.57 0.43 0.40 0.38 0.32 0.21 0.12 0.10 0.09 0.10
0.00 0.00 0.01 0.05 0.09 0.03 0.01 0.00 0.00 0.00 0.00 0.00 0.01 0.10 0.14 0.21 0.25 0.22 0.29 0.26 0.17 0.15 0.27 0.37 0.38 0.23 0.25 0.63 0.52 0.41 0.39 1.06 1.30 0.59 0.48 0.34 0.29 0.32 0.37 0.35 0.37 0.33 0.18 0.14
0.00 0.00 0.01 0.03 0.07 0.03 0.01 0.00 0.00 0.00 0.01 0.01 0.01 0.15 0.28 0.27 0.30 0.12 0.15 0.14 0.11 0.08 0.15 0.23 0.13 0.18 0.28 0.59 0.51 0.48 0.41 0.49 0.93 1.02 0.66 0.61 0.67 0.56 0.61 0.93 0.86 0.76 0.57 0.31
0.00 0.00 0.01 0.02 0.04 0.00 0.00 0.00 0.00 0.02 0.01 0.01 0.01 0.19 0.29 0.27 0.25 0.12 0.11 0.05 0.01 0.00 0.00 0.02 0.03 0.06 0.14 0.38 0.36 0.31 0.39 0.54 0.73 1.02 1.10 0.77 0.81 1.02 0.90 0.77 0.89 0.96 0.86 0.78
0.01 0.01 0.02 0.01 0.03 0.01 0.00 0.00 0.02 0.01 0.00 0.02 0.05 0.21 0.41 0.34 0.12 0.13 0.05 0.01 0.00 0.00 0.00 0.00 0.00 0.03 0.07 0.14 0.27 0.17 0.29 0.35 0.50 1.03 1.18 1.70 1.32 1.27 1.28 1.29 1.25 1.13 1.09 1.06
0.01 0.01 0.03 0.02 0.01 0.01 0.01 0.00 0.01 0.03 0.04 0.03 0.03 0.14 0.18 0.20 0.13 0.08 0.07 0.03 0.00 0.00 0.00 0.00 0.00 0.00 0.02 0.08 0.11 0.12 0.15 0.23 0.26 0.42 0.60 0.84 1.30 0.95 0.93 0.84 0.78 0.69 0.55 0.41
0.00 0.00 0.00 0.00 0.00 0.04 0.07 0.07 0.04 0.02 0.00 0.00 0.02 0.02 0.01 0.03 0.02 0.02 0.00 0.00 0.00 0.00 0.00 0.00 0.00 0.00 0.00 0.00 0.02 0.07 0.06 0.03 0.03 0.05 0.04 0.09 0.20 0.17 0.21 0.21 0.26 0.38 0.44 0.48
0.00 0.00 0.00 0.00 0.00 0.04 0.06 0.08 0.02 0.00 0.00 0.00 0.00 0.00 0.00 0.00 0.00 0.00 0.00 0.00 0.00 0.00 0.00 0.00 0.00 0.00 0.00 0.00 0.00 0.00 0.00 0.00 0.00 0.00 0.00 0.00 0.00 0.02 0.06 0.07 0.12 0.14 0.16 0.20
0.00 0.00 0.00 0.00 0.00 0.01 0.00 0.00 0.00 0.00 0.00 0.00 0.00 0.00 0.03 0.05 0.01 0.00 0.00 0.00 0.00 0.00 0.00 0.00 0.00 0.00 0.00 0.00 0.00 0.00 0.00 0.00 0.00 0.00 0.00 0.00 0.00 0.00 0.00 0.00 0.00 0.01 0.03 0.03

GFSCGP_prec_precacc12_123.txt.gz
Total_Precipitation_Accumulation
0.00 0.00 0.00 0.00 0.00 0.00 0.00 0.00 0.00 0.01 0.03 0.16 0.27 0.42 0.43 0.11 0.08 0.06 0.04 0.01 0.00 0.00 0.00 0.00 0.00 0.00 0.00 0.00 0.00 0.00 0.00 0.02 0.00 0.00 0.00 0.00 0.05 0.01 0.00 0.00 0.02 0.05 0.03 0.01
0.00 0.00 0.00 0.00 0.00 0.00 0.00 0.00 0.00 0.01 0.00 0.02 0.16 0.26 0.37 0.31 0.05 0.02 0.04 0.03 0.00 0.00 0.00 0.00 0.00 0.00 0.00 0.00 0.00 0.00 0.00 0.04 0.06 0.01 0.02 0.02 0.00 0.00 0.00 0.02 0.02 0.02 0.07 0.03
0.00 0.00 0.00 0.00 0.00 0.00 0.01 0.00 0.00 0.02 0.02 0.00 0.01 0.11 0.41 0.34 0.16 0.01 0.00 0.04 0.00 0.00 0.00 0.00 0.00 0.00 0.00 0.00 0.00 0.00 0.00 0.03 0.09 0.05 0.01 0.05 0.11 0.12 0.05 0.02 0.02 0.05 0.03 0.07
0.00 0.00 0.00 0.00 0.00 0.00 0.00 0.01 0.00 0.03 0.04 0.03 0.00 0.01 0.23 0.39 0.21 0.04 0.01 0.02 0.01 0.00 0.00 0.00 0.00 0.00 0.00 0.00 0.00 0.00 0.00 0.05 0.04 0.00 0.06 0.17 0.10 0.03 0.10 0.11 0.11 0.07 0.03 0.03
0.00 0.00 0.00 0.00 0.00 0.00 0.00 0.03 0.07 0.04 0.03 0.02 0.01 0.00 0.06 0.32 0.25 0.04 0.00 0.00 0.01 0.00 0.00 0.00 0.00 0.00 0.00 0.00 0.00 0.00 0.00 0.09 0.04 0.05 0.23 0.06 0.04 0.04 0.05 0.07 0.06 0.06 0.06 0.01
0.00 0.00 0.00 0.00 0.00 0.00 0.00 0.01 0.05 0.06 0.06 0.02 0.00 0.00 0.00 0.12 0.14 0.04 0.01 0.00 0.00 0.00 0.00 0.00 0.00 0.00 0.00 0.00 0.00 0.00 0.00 0.01 0.02 0.11 0.08 0.07 0.07 0.08 0.13 0.13 0.07 0.06 0.02 0.00
0.00 0.00 0.00 0.00 0.00 0.00 0.00 0.01 0.04 0.05 0.03 0.00 0.00 0.01 0.00 0.02 0.05 0.02 0.01 0.00 0.00 0.00 0.00 0.00 0.00 0.00 0.00 0.00 0.00 0.00 0.00 0.00 0.00 0.06 0.06 0.06 0.04 0.04 0.11 0.12 0.11 0.12 0.08 0.04
0.00 0.00 0.00 0.00 0.00 0.00 0.01 0.00 0.01 0.00 0.01 0.02 0.01 0.00 0.00 0.01 0.00 0.00 0.00 0.00 0.00 0.00 0.01 0.01 0.00 0.00 0.00 0.00 0.00 0.00 0.00 0.00 0.00 0.00 0.00 0.02 0.05 0.07 0.05 0.08 0.16 0.12 0.09 0.07
0.00 0.00 0.00 0.00 0.00 0.00 0.02 0.01 0.02 0.03 0.03 0.04 0.01 0.00 0.00 0.01 0.01 0.00 0.02 0.02 0.00 0.00 0.00 0.01 0.00 0.00 0.00 0.00 0.00 0.00 0.00 0.00 0.00 0.00 0.00 0.00 0.01 0.04 0.01 0.04 0.18 0.10 0.20 0.09
0.00 0.00 0.00 0.00 0.00 0.00 0.00 0.06 0.07 0.05 0.07 0.02 0.00 0.00 0.00 0.01 0.00 0.00 0.01 0.02 0.00 0.00 0.00 0.00 0.00 0.00 0.00 0.00 0.00 0.00 0.00 0.00 0.00 0.00 0.00 0.00 0.00 0.02 0.10 0.04 0.12 0.09 0.18 0.14
0.00 0.00 0.00 0.00 0.00 0.00 0.00 0.02 0.05 0.04 0.03 0.02 0.02 0.01 0.05 0.00 0.00 0.00 0.01 0.00 0.00 0.00 0.00 0.00 0.02 0.01 0.02 0.01 0.00 0.00 0.00 0.00 0.00 0.00 0.00 0.00 0.00 0.00 0.04 0.06 0.18 0.24 0.16 0.09
0.00 0.00 0.00 0.00 0.00 0.00 0.00 0.00 0.00 0.02 0.01 0.02 0.01 0.04 0.02 0.00 0.00 0.00 0.02 0.00 0.00 0.00 0.01 0.01 0.03 0.02 0.02 0.00 0.00 0.00 0.00 0.00 0.00 0.00 0.00 0.00 0.00 0.00 0.00 0.05 0.08 0.17 0.15 0.17
0.00 0.00 0.00 0.00 0.00 0.00 0.00 0.00 0.00 0.00 0.02 0.06 0.02 0.01 0.07 0.00 0.00 0.00 0.00 0.00 0.00 0.01 0.02 0.03 0.02 0.04 0.01 0.00 0.00 0.00 0.00 0.00 0.04 0.05 0.06 0.02 0.01 0.01 0.04 0.04 0.04 0.08 0.08 0.05
0.00 0.00 0.00 0.00 0.01 0.00 0.03 0.02 0.00 0.00 0.00 0.00 0.00 0.00 0.02 0.02 0.00 0.00 0.00 0.00 0.00 0.07 0.08 0.08 0.04 0.02 0.02 0.03 0.04 0.02 0.07 0.07 0.03 0.05 0.05 0.08 0.04 0.03 0.07 0.05 0.03 0.06 0.10 0.11
0.00 0.00 0.00 0.00 0.00 0.01 0.03 0.12 0.15 0.03 0.00 0.00 0.00 0.00 0.02 0.15 0.00 0.00 0.00 0.00 0.00 0.01 0.03 0.09 0.07 0.04 0.05 0.10 0.09 0.12 0.18 0.19 0.15 0.13 0.13 0.13 0.17 0.16 0.20 0.14 0.13 0.10 0.11 0.15
0.00 0.00 0.00 0.01 0.00 0.00 0.01 0.01 0.01 0.04 0.01 0.00 0.00 0.00 0.01 0.04 0.00 0.00 0.00 0.00 0.00 0.01 0.00 0.08 0.26 0.20 0.12 0.15 0.19 0.29 0.26 0.28 0.19 0.16 0.31 0.41 0.36 0.37 0.28 0.19 0.27 0.23 0.16 0.13
0.00 0.01 0.01 0.00 0.00 0.01 0.02 0.00 0.00 0.01 0.02 0.03 0.02 0.01 0.10 0.14 0.09 0.07 0.07 0.10 0.16 0.08 0.02 0.09 0.30 0.26 0.29 0.23 0.29 0.38 0.34 0.25 0.23 0.25 0.24 0.25 0.33 0.30 0.30 0.23 0.32 0.37 0.32 0.26
0.00 0.00 0.02 0.01 0.05 0.11 0.06 0.01 0.01 0.00 0.00 0.01 0.02 0.03 0.09 0.09 0.12 0.07 0.05 0.12 0.27 0.24 0.20 0.26 0.34 0.34 0.44 0.42 0.37 0.33 0.33 0.31 0.24 0.22 0.33 0.37 0.37 0.44 0.42 0.31 0.22 0.18 0.13 0.15
0.00 0.00 0.01 0.05 0.10 0.03 0.00 0.00 0.00 0.00 0.00 0.00 0.01 0.08 0.10 0.21 0.26 0.23 0.27 0.23 0.22 0.30 0.51 0.54 0.35 0.27 0.25 0.61 0.60 0.58 0.50 0.38 0.35 0.36 0.34 0.27 0.31 0.35 0.44 0.44 0.47 0.39 0.24 0.19
0.00 0.00 0.01 0.03 0.12 0.07 0.04 0.12 0.11 0.03 0.01 0.00 0.00 0.15 0.25 0.19 0.29 0.15 0.15 0.16 0.20 0.26 0.34 0.30 0.13 0.14 0.26 0.47 0.45 0.54 0.50 0.54 0.49 0.44 0.56 0.60 0.69 0.59 0.64 0.97 1.10 1.00 0.88 0.61
0.00 0.00 0.01 0.02 0.07 0.01 0.00 0.01 0.00 0.07 0.08 0.02 0.01 0.19 0.30 0.34 0.26 0.18 0.11 0.04 0.03 0.03 0.14 0.18 0.05 0.16 0.17 0.30 0.36 0.39 0.37 0.37 0.59 0.77 0.89 0.68 0.75 1.00 0.98 0.99 1.17 1.24 1.27 1.28
0.00 0.01 0.02 0.02 0.09 0.06 0.00 0.00 0.03 0.04 0.02 0.05 0.11 0.34 0.50 0.32 0.07 0.10 0.03 0.02 0.00 0.01 0.06 0.06 0.06 0.11 0.19 0.20 0.22 0.22 0.37 0.49 0.43 0.94 0.94 1.55 1.28 1.26 1.31 1.35 1.41 1.40 1.39 1.28
0.01 0.01 0.04 0.02 0.04 0.01 0.00 0.00 0.01 0.03 0.04 0.03 0.07 0.17 0.21 0.20 0.13 0.05 0.00 0.01 0.00 0.00 0.00 0.00 0.02 0.02 0.05 0.11 0.17 0.21 0.22 0.32 0.29 0.46 0.68 1.01 1.66 1.12 0.96 0.85 0.81 0.81 0.69 0.48
0.00 0.00 0.00 0.00 0.00 0.01 0.01 0.02 0.02 0.01 0.00 0.00 0.02 0.03 0.01 0.03 0.02 0.02 0.00 0.00 0.00 0.00 0.00 0.00 0.00 0.00 0.00 0.02 0.07 0.11 0.10 0.11 0.11 0.13 0.16 0.18 0.28 0.23 0.22 0.21 0.26 0.38 0.47 0.55
0.01 0.00 0.00 0.00 0.00 0.03 0.06 0.08 0.01 0.00 0.01 0.01 0.01 0.00 0.00 0.00 0.00 0.00 0.00 0.00 0.00 0.00 0.00 0.00 0.00 0.00 0.00 0.00 0.01 0.01 0.02 0.01 0.01 0.01 0.00 0.00 0.01 0.03 0.06 0.07 0.12 0.14 0.17 0.22
0.00 0.00 0.00 0.00 0.00 0.04 0.03 0.00 0.00 0.01 0.03 0.01 0.00 0.00 0.03 0.05 0.01 0.00 0.00 0.00 0.00 0.00 0.00 0.00 0.00 0.00 0.00 0.00 0.00 0.00 0.00 0.00 0.00 0.00 0.00 0.00 0.00 0.00 0.00 0.00 0.00 0.01 0.04 0.04

GFSCGP_prec_precacc12_126.txt.gz
Total_Precipitation_Accumulation
0.00 0.00 0.00 0.00 0.00 0.00 0.00 0.00 0.00 0.01 0.00 0.02 0.01 0.12 0.25 0.08 0.07 0.14 0.20 0.01 0.00 0.00 0.00 0.00 0.00 0.00 0.00 0.00 0.00 0.00 0.00 0.03 0.01 0.01 0.01 0.02 0.05 0.01 0.00 0.01 0.00 0.00 0.00 0.00
0.00 0.00 0.00 0.00 0.00 0.00 0.00 0.00 0.00 0.01 0.00 0.00 0.00 0.03 0.14 0.18 0.02 0.01 0.09 0.10 0.01 0.00 0.00 0.00 0.00 0.00 0.00 0.00 0.00 0.00 0.02 0.06 0.07 0.01 0.04 0.03 0.01 0.01 0.01 0.00 0.00 0.00 0.00 0.00
0.00 0.00 0.00 0.00 0.00 0.00 0.00 0.00 0.00 0.02 0.02 0.00 0.00 0.01 0.07 0.12 0.05 0.00 0.01 0.17 0.04 0.00 0.00 0.00 0.00 0.00 0.00 0.00 0.00 0.00 0.03 0.06 0.10 0.05 0.02 0.06 0.14 0.13 0.11 0.04 0.01 0.02 0.00 0.00
0.00 0.00 0.00 0.00 0.00 0.00 0.00 0.00 0.00 0.02 0.04 0.03 0.01 0.01 0.00 0.03 0.04 0.01 0.00 0.02 0.03 0.00 0.00 0.00 0.00 0.00 0.00 0.00 0.00 0.00 0.01 0.07 0.06 0.03 0.08 0.20 0.11 0.04 0.10 0.11 0.10 0.07 0.02 0.00
0.00 0.00 0.00 0.00 0.00 0.00 0.00 0.01 0.03 0.04 0.03 0.02 0.01 0.00 0.00 0.01 0.02 0.00 0.00 0.00 0.03 0.00 0.00 0.00 0.00 0.00 0.00 0.00 0.00 0.00 0.00 0.12 0.09 0.15 0.28 0.08 0.04 0.05 0.06 0.09 0.08 0.07 0.07 0.01
0.00 0.00 0.00 0.00 0.00 0.00 0.00 0.00 0.04 0.06 0.06 0.02 0.00 0.00 0.00 0.01 0.02 0.03 0.01 0.00 0.01 0.01 0.00 0.00 0.00 0.00 0.00 0.00 0.00 0.00 0.00 0.04 0.09 0.16 0.11 0.09 0.08 0.10 0.19 0.18 0.13 0.06 0.02 0.00
0.00 0.00 0.00 0.00 0.00 0.00 0.00 0.00 0.02 0.04 0.03 0.00 0.00 0.01 0.00 0.02 0.05 0.02 0.02 0.00 0.00 0.01 0.00 0.00 0.00 0.00 0.00 0.00 0.00 0.00 0.00 0.01 0.04 0.10 0.07 0.10 0.06 0.08 0.14 0.14 0.12 0.12 0.08 0.04
0.00 0.00 0.00 0.00 0.00 0.00 0.00 0.00 0.00 0.00 0.01 0.02 0.01 0.01 0.00 0.01 0.01 0.00 0.03 0.01 0.00 0.00 0.00 0.00 0.00 0.00 0.00 0.00 0.00 0.00 0.00 0.00 0.01 0.06 0.04 0.07 0.10 0.08 0.06 0.09 0.16 0.12 0.09 0.07
0.00 0.00 0.00 0.00 0.00 0.00 0.00 0.00 0.00 0.02 0.03 0.04 0.01 0.00 0.00 0.01 0.05 0.01 0.00 0.00 0.00 0.00 0.00 0.00 0.00 0.00 0.00 0.00 0.00 0.00 0.00 0.00 0.00 0.01 0.03 0.05 0.06 0.06 0.02 0.05 0.18 0.07 0.09 0.06
0.00 0.00 0.00 0.00 0.00 0.00 0.00 0.02 0.06 0.04 0.05 0.02 0.00 0.00 0.01 0.01 0.00 0.00 0.00 0.00 0.00 0.00 0.00 0.02 0.01 0.00 0.00 0.00 0.00 0.00 0.00 0.00 0.00 0.00 0.00 0.00 0.01 0.02 0.06 0.09 0.16 0.05 0.12 0.11
0.00 0.00 0.00 0.00 0.00 0.00 0.00 0.01 0.02 0.03 0.02 0.02 0.02 0.03 0.09 0.08 0.00 0.00 0.04 0.03 0.01 0.00 0.00 0.02 0.07 0.03 0.04 0.00 0.00 0.00 0.00 0.00 0.00 0.00 0.00 0.00 0.00 0.00 0.02 0.08 0.13 0.27 0.24 0.14
0.00 0.00 0.00 0.00 0.00 0.00 0.00 0.00 0.00 0.01 0.01 0.02 0.01 0.05 0.02 0.00 0.00 0.00 0.17 0.13 0.01 0.04 0.04 0.01 0.12 0.16 0.07 0.05 0.01 0.00 0.00 0.00 0.00 0.00 0.00 0.00 0.00 0.00 0.00 0.05 0.06 0.18 0.31 0.27
0.00 0.00 0.00 0.00 0.00 0.00 0.00 0.00 0.00 0.00 0.02 0.06 0.05 0.03 0.07 0.00 0.00 0.00 0.01 0.10 0.04 0.01 0.03 0.03 0.04 0.13 0.15 0.11 0.05 0.00 0.00 0.00 0.00 0.00 0.00 0.01 0.00 0.00 0.01 0.02 0.02 0.07 0.17 0.13
0.00 0.00 0.00 0.00 0.00 0.00 0.03 0.02 0.00 0.00 0.00 0.00 0.00 0.00 0.02 0.02 0.00 0.00 0.00 0.00 0.00 0.07 0.09 0.06 0.05 0.09 0.23 0.27 0.19 0.01 0.00 0.00 0.00 0.00 0.00 0.01 0.03 0.03 0.01 0.02 0.03 0.06 0.07 0.06
0.00 0.00 0.00 0.00 0.00 0.00 0.02 0.12 0.15 0.03 0.00 0.00 0.00 0.00 0.02 0.15 0.01 0.00 0.00 0.00 0.00 0.01 0.03 0.08 0.07 0.06 0.41 0.62 0.49 0.05 0.01 0.04 0.05 0.06 0.03 0.05 0.12 0.13 0.17 0.11 0.09 0.07 0.03 0.02
0.00 0.00 0.00 0.00 0.00 0.00 0.01 0.01 0.01 0.06 0.03 0.00 0.00 0.02 0.05 0.33 0.27 0.07 0.04 0.01 0.00 0.02 0.01 0.08 0.25 0.20 0.14 0.41 1.12 1.00 0.41 0.47 0.26 0.17 0.25 0.39 0.36 0.26 0.19 0.13 0.19 0.16 0.12 0.11
0.00 0.00 0.00 0.00 0.00 0.00 0.01 0.00 0.00 0.00 0.02 0.02 0.02 0.02 0.12 0.34 0.50 0.08 0.06 0.11 0.17 0.13 0.21 0.21 0.35 0.31 0.26 0.21 0.37 0.80 0.54 0.36 0.41 0.58 0.28 0.25 0.27 0.23 0.19 0.19 0.30 0.31 0.29 0.26
0.00 0.00 0.00 0.01 0.04 0.11 0.06 0.01 0.01 0.00 0.00 0.01 0.03 0.04 0.22 0.18 0.14 0.09 0.08 0.15 0.26 0.35 0.69 1.05 0.53 0.55 0.55 0.48 0.44 0.37 0.31 0.32 0.30 0.52 0.62 0.46 0.38 0.44 0.46 0.35 0.27 0.26 0.23 0.24
0.00 0.00 0.01 0.04 0.10 0.03 0.00 0.00 0.00 0.01 0.00 0.00 0.02 0.17 0.31 0.71 0.36 0.31 0.31 0.25 0.25 0.38 0.72 0.74 0.41 0.44 0.40 0.68 0.78 0.62 0.52 0.41 0.38 0.46 0.48 0.48 0.38 0.34 0.34 0.35 0.47 0.49 0.40 0.29
0.00 0.00 0.01 0.03 0.12 0.07 0.05 0.12 0.12 0.10 0.02 0.00 0.01 0.13 0.17 0.12 0.28 0.27 0.14 0.16 0.20 0.27 0.45 0.46 0.17 0.17 0.23 0.33 0.46 0.81 0.73 0.64 0.54 0.55 0.56 0.73 0.84 0.54 0.42 0.67 0.86 0.92 0.93 0.68
0.00 0.00 0.01 0.02 0.07 0.01 0.01 0.02 0.00 0.09 0.09 0.03 0.07 0.24 0.34 0.43 0.24 0.20 0.10 0.03 0.03 0.03 0.17 0.26 0.13 0.32 0.21 0.22 0.32 0.37 0.47 0.43 0.58 0.75 0.74 0.63 0.77 0.91 0.81 0.83 0.95 1.10 1.31 1.39
0.00 0.01 0.02 0.02 0.11 0.09 0.00 0.00 0.03 0.05 0.03 0.68 0.81 0.88 0.77 0.31 0.07 0.10 0.03 0.02 0.00 0.02 0.07 0.08 0.09 0.23 0.21 0.16 0.30 0.47 0.56 0.58 0.54 0.78 0.75 0.79 0.72 0.90 1.23 1.35 1.40 1.35 1.43 1.39
0.01 0.01 0.04 0.04 0.06 0.01 0.00 0.00 0.00 0.01 0.04 0.23 0.56 0.63 0.60 0.20 0.13 0.05 0.01 0.01 0.00 0.00 0.01 0.02 0.05 0.14 0.15 0.13 0.22 0.33 0.60 0.67 0.49 0.54 0.48 0.76 1.39 1.08 0.99 0.93 0.84 0.83 0.75 0.56
0.00 0.00 0.00 0.01 0.02 0.00 0.00 0.01 0.01 0.01 0.07 0.44 0.13 0.08 0.03 0.03 0.02 0.02 0.00 0.00 0.00 0.00 0.00 0.00 0.01 0.02 0.06 0.11 0.16 0.23 0.20 0.31 0.42 0.48 0.52 0.49 0.64 0.39 0.26 0.20 0.25 0.36 0.46 0.55
0.04 0.02 0.00 0.00 0.00 0.02 0.04 0.05 0.01 0.00 0.01 0.05 0.07 0.02 0.01 0.00 0.00 0.00 0.01 0.01 0.00 0.00 0.00 0.00 0.00 0.00 0.00 0.02 0.02 0.03 0.04 0.07 0.12 0.11 0.07 0.04 0.07 0.10 0.07 0.08 0.12 0.14 0.17 0.22
0.00 0.01 0.00 0.00 0.00 0.11 0.22 0.03 0.00 0.01 0.11 0.36 0.22 0.01 0.01 0.00 0.00 0.00 0.00 0.00 0.00 0.00 0.00 0.00 0.00 0.00 0.00 0.00 0.00 0.00 0.00 0.01 0.01 0.01 0.00 0.00 0.00 0.00 0.00 0.00 0.00 0.01 0.04 0.04

GFSCGP_prec_precacc12_132.txt.gz
Total_Precipitation_Accumulation
0.00 0.00 0.00 0.00 0.00 0.00 0.00 0.00 0.00 0.00 0.00 0.02 0.01 0.05 0.02 0.00 0.02 0.17 0.20 0.00 0.00 0.00 0.00 0.00 0.00 0.00 0.00 0.00 0.00 0.00 0.00 0.01 0.00 0.01 0.04 0.04 0.04 0.03 0.03 0.04 0.00 0.00 0.01 0.00
0.00 0.00 0.00 0.00 0.00 0.00 0.00 0.00 0.00 0.00 0.00 0.01 0.00 0.00 0.00 0.00 0.00 0.02 0.08 0.08 0.02 0.00 0.00 0.00 0.00 0.00 0.00 0.00 0.00 0.00 0.02 0.03 0.04 0.01 0.02 0.02 0.03 0.03 0.04 0.03 0.01 0.00 0.00 0.01
0.00 0.00 0.00 0.00 0.00 0.00 0.00 0.00 0.00 0.00 0.01 0.00 0.00 0.00 0.00 0.00 0.01 0.00 0.01 0.16 0.05 0.00 0.00 0.00 0.00 0.00 0.00 0.00 0.00 0.00 0.03 0.04 0.02 0.06 0.04 0.05 0.11 0.06 0.12 0.08 0.01 0.00 0.00 0.00
0.00 0.00 0.00 0.00 0.00 0.00 0.00 0.00 0.00 0.00 0.00 0.02 0.01 0.01 0.00 0.00 0.02 0.01 0.00 0.02 0.03 0.00 0.00 0.00 0.00 0.00 0.00 0.00 0.00 0.00 0.01 0.04 0.04 0.06 0.09 0.07 0.04 0.02 0.02 0.01 0.01 0.00 0.00 0.00
0.00 0.00 0.00 0.00 0.00 0.00 0.00 0.00 0.00 0.00 0.00 0.00 0.00 0.00 0.00 0.00 0.00 0.01 0.02 0.00 0.03 0.00 0.01 0.00 0.00 0.00 0.00 0.00 0.00 0.00 0.00 0.06 0.07 0.15 0.21 0.06 0.01 0.03 0.02 0.04 0.05 0.01 0.00 0.00
0.00 0.00 0.00 0.00 0.00 0.00 0.00 0.00 0.00 0.00 0.00 0.00 0.00 0.00 0.00 0.01 0.01 0.04 0.09 0.01 0.01 0.01 0.01 0.02 0.00 0.00 0.00 0.00 0.00 0.00 0.00 0.04 0.09 0.13 0.04 0.03 0.04 0.03 0.11 0.07 0.08 0.01 0.00 0.00
0.00 0.00 0.00 0.00 0.00 0.00 0.00 0.00 0.00 0.00 0.00 0.00 0.00 0.00 0.00 0.02 0.05 0.02 0.04 0.02 0.00 0.01 0.01 0.06 0.01 0.00 0.00 0.00 0.00 0.00 0.00 0.01 0.04 0.07 0.02 0.05 0.03 0.04 0.06 0.04 0.00 0.00 0.00 0.00
0.00 0.00 0.00 0.00 0.00 0.00 0.00 0.00 0.00 0.00 0.00 0.00 0.00 0.00 0.00 0.01 0.01 0.00 0.03 0.03 0.00 0.01 0.02 0.01 0.00 0.01 0.02 0.00 0.00 0.00 0.00 0.00 0.01 0.06 0.04 0.05 0.05 0.03 0.02 0.01 0.00 0.00 0.00 0.00
0.00 0.00 0.00 0.00 0.00 0.00 0.00 0.00 0.00 0.00 0.00 0.00 0.00 0.00 0.00 0.01 0.05 0.01 0.00 0.00 0.00 0.00 0.02 0.01 0.02 0.03 0.02 0.00 0.00 0.00 0.00 0.00 0.00 0.01 0.03 0.06 0.04 0.04 0.02 0.04 0.05 0.01 0.01 0.00
0.00 0.00 0.00 0.00 0.00 0.00 0.00 0.02 0.00 0.00 0.00 0.00 0.00 0.01 0.01 0.01 0.00 0.00 0.01 0.02 0.02 0.02 0.05 0.08 0.12 0.06 0.00 0.00 0.00 0.00 0.00 0.00 0.00 0.00 0.00 0.00 0.01 0.01 0.02 0.09 0.10 0.03 0.10 0.07
0.00 0.00 0.00 0.00 0.00 0.00 0.00 0.00 0.00 0.00 0.01 0.00 0.01 0.03 0.09 0.08 0.00 0.00 0.05 0.05 0.09 0.05 0.08 0.09 0.15 0.10 0.07 0.03 0.00 0.00 0.00 0.00 0.00 0.00 0.00 0.00 0.00 0.00 0.00 0.04 0.09 0.13 0.16 0.12
0.00 0.00 0.00 0.00 0.00 0.00 0.00 0.00 0.00 0.00 0.00 0.02 0.00 0.04 0.02 0.00 0.00 0.00 0.17 0.13 0.11 0.07 0.08 0.14 0.24 0.31 0.09 0.14 0.07 0.03 0.01 0.00 0.00 0.00 0.00 0.00 0.00 0.00 0.00 0.00 0.03 0.13 0.25 0.19
0.00 0.00 0.00 0.00 0.00 0.00 0.00 0.00 0.00 0.00 0.00 0.02 0.04 0.03 0.07 0.00 0.00 0.00 0.01 0.10 0.04 0.01 0.03 0.03 0.09 0.24 0.26 0.20 0.28 0.22 0.14 0.04 0.00 0.00 0.00 0.01 0.01 0.00 0.01 0.02 0.02 0.08 0.17 0.12
0.00 0.00 0.00 0.00 0.00 0.00 0.02 0.02 0.00 0.00 0.00 0.00 0.00 0.00 0.02 0.02 0.02 0.00 0.01 0.03 0.00 0.07 0.09 0.05 0.04 0.12 0.34 0.38 0.46 0.48 0.35 0.35 0.22 0.14 0.03 0.00 0.02 0.02 0.00 0.02 0.05 0.08 0.07 0.06
0.00 0.00 0.00 0.00 0.00 0.00 0.01 0.12 0.15 0.03 0.00 0.00 0.00 0.00 0.02 0.16 0.01 0.00 0.04 0.06 0.05 0.02 0.04 0.07 0.07 0.08 0.47 0.67 0.66 0.89 0.87 0.82 0.53 0.29 0.19 0.11 0.05 0.04 0.09 0.10 0.11 0.12 0.08 0.09
0.00 0.00 0.00 0.00 0.00 0.00 0.00 0.00 0.01 0.04 0.02 0.00 0.00 0.02 0.06 0.32 0.26 0.07 0.04 0.05 0.14 0.21 0.15 0.13 0.14 0.09 0.15 0.49 1.39 1.43 1.48 1.69 1.81 1.16 0.44 0.25 0.21 0.17 0.10 0.09 0.13 0.15 0.17 0.23
0.00 0.00 0.00 0.00 0.00 0.00 0.00 0.00 0.00 0.00 0.01 0.02 0.01 0.01 0.11 0.33 0.49 0.08 0.06 0.13 0.28 0.22 0.26 0.28 0.40 0.38 0.24 0.16 0.36 1.09 1.17 2.13 2.28 2.04 1.04 0.47 0.32 0.24 0.17 0.17 0.27 0.25 0.30 0.33
0.00 0.00 0.00 0.00 0.00 0.04 0.05 0.01 0.01 0.00 0.00 0.01 0.03 0.01 0.15 0.12 0.05 0.05 0.07 0.15 0.24 0.36 0.67 1.21 1.03 0.84 0.60 0.66 0.45 0.43 0.49 1.06 1.96 1.96 1.63 0.76 0.53 0.49 0.49 0.41 0.37 0.34 0.35 0.43
0.00 0.00 0.00 0.00 0.01 0.00 0.00 0.00 0.00 0.01 0.00 0.00 0.01 0.12 0.22 0.53 0.16 0.16 0.11 0.08 0.20 0.35 0.57 0.62 0.49 0.73 0.56 0.58 0.56 0.47 0.58 0.72 1.06 1.20 2.32 2.06 0.84 0.61 0.52 0.47 0.49 0.47 0.49 0.44
0.00 0.00 0.00 0.00 0.06 0.04 0.04 0.12 0.12 0.10 0.02 0.00 0.01 0.02 0.02 0.06 0.18 0.25 0.03 0.05 0.11 0.19 0.32 0.29 0.13 0.18 0.18 0.18 0.39 0.77 0.72 0.74 1.11 1.06 0.99 1.97 1.99 1.03 0.59 0.47 0.64 0.59 0.59 0.55
0.00 0.00 0.00 0.00 0.03 0.01 0.01 0.02 0.00 0.07 0.09 0.03 0.07 0.09 0.18 0.39 0.32 0.22 0.04 0.01 0.02 0.03 0.17 0.25 0.12 0.33 0.22 0.11 0.27 0.38 0.57 1.09 1.21 1.02 1.04 1.03 1.17 1.16 0.85 1.18 1.06 0.76 0.70 0.72
0.00 0.00 0.00 0.01 0.08 0.08 0.00 0.00 0.01 0.04 0.03 0.67 0.78 0.71 0.63 0.43 0.25 0.11 0.05 0.04 0.02 0.03 0.07 0.08 0.09 0.23 0.21 0.16 0.30 0.61 0.50 0.68 1.52 1.80 1.36 1.40 1.38 0.97 0.63 0.53 0.93 0.89 0.69 0.58
0.00 0.00 0.01 0.02 0.05 0.02 0.00 0.00 0.00 0.00 0.00 0.21 0.56 0.80 0.99 0.90 0.35 0.09 0.04 0.03 0.04 0.01 0.01 0.02 0.05 0.14 0.13 0.09 0.28 0.44 0.75 0.87 0.76 0.92 1.12 1.70 2.26 1.64 0.92 0.54 0.36 0.32 0.34 0.29
0.00 0.00 0.00 0.00 0.02 0.00 0.00 0.00 0.00 0.00 0.10 0.54 0.21 0.45 0.29 0.44 0.35 0.13 0.07 0.05 0.02 0.03 0.00 0.00 0.02 0.03 0.07 0.12 0.22 0.26 0.38 0.71 1.06 1.41 1.42 1.40 1.18 0.71 0.35 0.18 0.10 0.10 0.05 0.08
0.05 0.03 0.00 0.00 0.00 0.01 0.01 0.00 0.01 0.04 0.08 0.45 1.31 1.04 0.42 0.10 0.02 0.05 0.03 0.02 0.01 0.00 0.00 0.00 0.00 0.00 0.01 0.03 0.05 0.10 0.17 0.29 0.49 0.50 0.32 0.20 0.20 0.26 0.20 0.11 0.03 0.02 0.02 0.03
0.00 0.01 0.00 0.00 0.00 0.11 0.22 0.04 0.06 0.20 0.30 0.49 0.99 0.44 0.25 0.10 0.02 0.01 0.00 0.00 0.00 0.00 0.00 0.00 0.00 0.00 0.00 0.00 0.03 0.03 0.06 0.09 0.15 0.14 0.07 0.09 0.12 0.08 0.07 0.02 0.00 0.00 0.01 0.01

GFSCGP_prec_precacc12_135.txt.gz
Total_Precipitation_Accumulation
0.00 0.00 0.00 0.00 0.00 0.00 0.00 0.00 0.00 0.00 0.00 0.01 0.00 0.00 0.02 0.00 0.01 0.15 0.17 0.00 0.00 0.00 0.00 0.00 0.00 0.00 0.00 0.00 0.00 0.00 0.00 0.01 0.00 0.01 0.04 0.04 0.04 0.05 0.03 0.04 0.00 0.00 0.01 0.00
0.00 0.00 0.00 0.00 0.00 0.00 0.00 0.00 0.00 0.00 0.00 0.01 0.00 0.00 0.00 0.00 0.00 0.01 0.05 0.08 0.02 0.00 0.00 0.00 0.00 0.00 0.00 0.00 0.00 0.00 0.02 0.02 0.00 0.01 0.02 0.02 0.03 0.03 0.05 0.03 0.01 0.00 0.00 0.01
0.00 0.00 0.00 0.00 0.00 0.00 0.00 0.00 0.00 0.00 0.01 0.02 0.00 0.00 0.00 0.00 0.01 0.00 0.01 0.14 0.05 0.00 0.00 0.00 0.00 0.00 0.00 0.00 0.00 0.00 0.03 0.04 0.01 0.03 0.03 0.05 0.08 0.06 0.13 0.09 0.03 0.00 0.00 0.00
0.00 0.00 0.00 0.00 0.00 0.00 0.00 0.00 0.00 0.00 0.00 0.01 0.01 0.01 0.00 0.00 0.02 0.01 0.00 0.00 0.02 0.00 0.01 0.00 0.00 0.00 0.00 0.00 0.00 0.00 0.01 0.03 0.04 0.05 0.06 0.05 0.03 0.02 0.01 0.01 0.00 0.00 0.00 0.00
0.00 0.00 0.00 0.00 0.00 0.00 0.00 0.00 0.00 0.00 0.00 0.00 0.00 0.00 0.00 0.00 0.00 0.01 0.02 0.00 0.02 0.00 0.01 0.00 0.00 0.00 0.00 0.00 0.00 0.00 0.00 0.04 0.06 0.11 0.08 0.06 0.01 0.02 0.02 0.04 0.04 0.01 0.00 0.00
0.00 0.00 0.00 0.00 0.00 0.00 0.00 0.00 0.00 0.00 0.00 0.00 0.00 0.00 0.00 0.00 0.01 0.04 0.09 0.01 0.01 0.01 0.01 0.02 0.01 0.00 0.00 0.00 0.00 0.00 0.00 0.03 0.07 0.05 0.03 0.03 0.03 0.03 0.06 0.05 0.06 0.00 0.00 0.00
0.00 0.00 0.00 0.00 0.00 0.00 0.00 0.00 0.00 0.00 0.00 0.00 0.00 0.00 0.00 0.00 0.04 0.02 0.04 0.02 0.00 0.01 0.01 0.06 0.02 0.03 0.01 0.00 0.00 0.00 0.00 0.01 0.04 0.04 0.01 0.05 0.03 0.04 0.04 0.02 0.00 0.00 0.00 0.00
0.00 0.00 0.00 0.00 0.00 0.00 0.00 0.00 0.00 0.00 0.00 0.00 0.00 0.00 0.00 0.00 0.01 0.00 0.03 0.03 0.00 0.01 0.02 0.01 0.00 0.05 0.08 0.01 0.00 0.00 0.00 0.00 0.01 0.06 0.04 0.05 0.05 0.02 0.02 0.02 0.00 0.00 0.00 0.00
0.00 0.00 0.00 0.00 0.00 0.00 0.00 0.00 0.00 0.00 0.00 0.00 0.00 0.00 0.00 0.00 0.04 0.01 0.00 0.00 0.00 0.01 0.02 0.00 0.02 0.03 0.07 0.05 0.01 0.00 0.00 0.00 0.00 0.01 0.03 0.05 0.04 0.04 0.02 0.03 0.00 0.00 0.00 0.00
0.00 0.00 0.00 0.00 0.00 0.00 0.00 0.00 0.00 0.00 0.00 0.00 0.00 0.01 0.01 0.01 0.00 0.00 0.01 0.02 0.02 0.03 0.05 0.08 0.13 0.07 0.01 0.06 0.02 0.00 0.00 0.00 0.00 0.00 0.00 0.00 0.01 0.01 0.02 0.06 0.04 0.02 0.03 0.02
0.00 0.00 0.00 0.00 0.00 0.00 0.00 0.00 0.00 0.00 0.00 0.00 0.00 0.02 0.03 0.07 0.00 0.00 0.03 0.05 0.09 0.05 0.09 0.10 0.16 0.15 0.11 0.07 0.05 0.02 0.00 0.00 0.00 0.00 0.00 0.00 0.00 0.00 0.00 0.03 0.04 0.07 0.09 0.05
0.00 0.00 0.00 0.00 0.00 0.00 0.00 0.00 0.00 0.00 0.00 0.00 0.00 0.01 0.00 0.00 0.00 0.00 0.16 0.13 0.11 0.07 0.09 0.14 0.27 0.36 0.13 0.16 0.12 0.08 0.01 0.00 0.00 0.02 0.01 0.00 0.00 0.00 0.00 0.00 0.02 0.06 0.19 0.11
0.00 0.00 0.00 0.00 0.00 0.00 0.00 0.00 0.00 0.00 0.00 0.00 0.03 0.02 0.00 0.00 0.00 0.00 0.01 0.10 0.04 0.01 0.02 0.03 0.10 0.23 0.27 0.20 0.28 0.23 0.14 0.07 0.03 0.03 0.01 0.01 0.01 0.00 0.01 0.02 0.02 0.06 0.15 0.09
0.00 0.00 0.00 0.00 0.00 0.00 0.00 0.00 0.00 0.00 0.00 0.00 0.00 0.00 0.00 0.00 0.02 0.00 0.01 0.03 0.00 0.00 0.01 0.01 0.02 0.11 0.34 0.39 0.47 0.51 0.40 0.41 0.36 0.24 0.10 0.04 0.03 0.02 0.00 0.02 0.05 0.08 0.07 0.05
0.00 0.00 0.00 0.00 0.00 0.00 0.00 0.00 0.00 0.00 0.00 0.00 0.00 0.00 0.00 0.01 0.00 0.00 0.04 0.06 0.04 0.01 0.01 0.02 0.04 0.06 0.46 0.66 0.66 0.90 0.90 0.91 0.67 0.50 0.39 0.26 0.16 0.05 0.05 0.06 0.07 0.08 0.06 0.08
0.00 0.00 0.00 0.00 0.00 0.00 0.00 0.00 0.00 0.02 0.01 0.00 0.00 0.02 0.06 0.30 0.26 0.07 0.04 0.05 0.13 0.20 0.15 0.11 0.06 0.05 0.14 0.48 1.38 1.41 1.44 1.63 1.79 1.21 0.58 0.42 0.31 0.18 0.08 0.07 0.06 0.07 0.12 0.19
0.00 0.00 0.00 0.00 0.00 0.00 0.00 0.00 0.00 0.00 0.00 0.00 0.00 0.01 0.05 0.27 0.49 0.06 0.05 0.10 0.16 0.16 0.25 0.23 0.21 0.24 0.17 0.14 0.33 1.04 1.07 1.98 2.20 2.10 1.29 0.64 0.45 0.33 0.21 0.20 0.24 0.15 0.21 0.30
0.00 0.00 0.00 0.00 0.00 0.00 0.00 0.00 0.00 0.00 0.00 0.00 0.01 0.01 0.15 0.12 0.04 0.04 0.05 0.07 0.09 0.24 0.60 1.08 0.78 0.65 0.46 0.49 0.37 0.32 0.41 0.94 1.88 1.94 1.82 1.15 0.73 0.53 0.46 0.38 0.32 0.33 0.41 0.49
0.00 0.00 0.00 0.00 0.00 0.00 0.00 0.00 0.00 0.01 0.00 0.00 0.00 0.12 0.22 0.52 0.15 0.13 0.07 0.04 0.06 0.12 0.24 0.36 0.39 0.61 0.46 0.33 0.35 0.24 0.31 0.55 0.90 1.10 2.30 2.12 0.87 0.60 0.48 0.42 0.43 0.45 0.49 0.47
0.00 0.00 0.00 0.00 0.00 0.00 0.00 0.00 0.01 0.07 0.02 0.00 0.01 0.02 0.02 0.05 0.09 0.17 0.02 0.01 0.01 0.02 0.11 0.17 0.06 0.12 0.12 0.14 0.25 0.46 0.42 0.40 0.86 0.86 0.90 1.95 1.96 1.02 0.59 0.44 0.40 0.37 0.36 0.32
0.00 0.00 0.00 0.00 0.00 0.00 0.01 0.01 0.00 0.02 0.01 0.02 0.07 0.08 0.14 0.25 0.17 0.11 0.02 0.01 0.00 0.01 0.03 0.09 0.09 0.20 0.13 0.06 0.18 0.21 0.41 0.97 1.05 0.87 0.92 0.92 1.10 1.32 1.08 1.00 0.82 0.55 0.40 0.33
0.00 0.00 0.00 0.00 0.02 0.03 0.00 0.00 0.00 0.02 0.01 0.63 0.72 0.58 0.54 0.41 0.25 0.11 0.05 0.03 0.02 0.01 0.01 0.02 0.03 0.15 0.08 0.07 0.27 0.52 0.31 0.40 1.45 2.05 1.55 1.43 1.30 1.01 0.98 0.88 1.16 1.25 0.73 0.51
0.00 0.00 0.00 0.01 0.02 0.01 0.00 0.00 0.00 0.00 0.00 0.21 0.52 0.77 0.97 0.90 0.35 0.09 0.04 0.03 0.04 0.01 0.01 0.02 0.04 0.12 0.10 0.06 0.23 0.34 0.67 0.76 0.72 1.11 1.62 2.44 2.53 1.92 1.11 0.90 0.73 0.82 0.95 0.62
0.00 0.00 0.00 0.00 0.02 0.00 0.00 0.00 0.00 0.00 0.10 0.53 0.21 0.44 0.29 0.45 0.39 0.16 0.09 0.11 0.08 0.06 0.04 0.00 0.02 0.03 0.07 0.11 0.20 0.23 0.35 0.64 1.02 1.45 1.42 1.60 1.72 1.36 1.00 0.62 0.52 0.44 0.46 0.40
0.04 0.02 0.00 0.00 0.00 0.00 0.00 0.00 0.01 0.04 0.08 0.44 1.30 1.03 0.42 0.10 0.02 0.06 0.03 0.05 0.04 0.02 0.01 0.01 0.02 0.00 0.02 0.05 0.06 0.13 0.19 0.29 0.49 0.52 0.40 0.32 0.37 0.49 0.45 0.35 0.26 0.20 0.21 0.20
0.00 0.01 0.00 0.00 0.00 0.07 0.19 0.04 0.06 0.19 0.27 0.48 0.99 0.44 0.25 0.10 0.02 0.01 0.01 0.00 0.00 0.00 0.00 0.01 0.02 0.03 0.05 0.03 0.07 0.15 0.11 0.13 0.17 0.14 0.08 0.15 0.22 0.16 0.14 0.09 0.08 0.09 0.07 0.03